Index of /20260507/WXO-DD/model_rdps/10km/18/030
Name Last modified Size Description
Parent Directory -
20260506T18Z_MSC_RDPS_AbsoluteVorticity_IsbL-0250_RLatLon0.09_PT030H.grib2 2026-05-07 02:56 590K
20260506T18Z_MSC_RDPS_AbsoluteVorticity_IsbL-0500_RLatLon0.09_PT030H.grib2 2026-05-07 02:56 557K
20260506T18Z_MSC_RDPS_AbsoluteVorticity_IsbL-0700_RLatLon0.09_PT030H.grib2 2026-05-07 02:56 619K
20260506T18Z_MSC_RDPS_AbsoluteVorticity_IsbL-0850_RLatLon0.09_PT030H.grib2 2026-05-07 02:56 778K
20260506T18Z_MSC_RDPS_AirTemp_AGL-120m_RLatLon0.09_PT030H.grib2 2026-05-07 02:56 373K
20260506T18Z_MSC_RDPS_AirTemp_AGL-2m_RLatLon0.09_PT030H.grib2 2026-05-07 02:56 625K
20260506T18Z_MSC_RDPS_AirTemp_AGL-40m_RLatLon0.09_PT030H.grib2 2026-05-07 02:56 384K
20260506T18Z_MSC_RDPS_AirTemp_AGL-80m_RLatLon0.09_PT030H.grib2 2026-05-07 02:56 377K
20260506T18Z_MSC_RDPS_AirTemp_IsbL-0001_RLatLon0.09_PT030H.grib2 2026-05-07 02:56 307K
20260506T18Z_MSC_RDPS_AirTemp_IsbL-0005_RLatLon0.09_PT030H.grib2 2026-05-07 02:56 286K
20260506T18Z_MSC_RDPS_AirTemp_IsbL-0010_RLatLon0.09_PT030H.grib2 2026-05-07 02:56 391K
20260506T18Z_MSC_RDPS_AirTemp_IsbL-0020_RLatLon0.09_PT030H.grib2 2026-05-07 02:56 319K
20260506T18Z_MSC_RDPS_AirTemp_IsbL-0030_RLatLon0.09_PT030H.grib2 2026-05-07 02:56 339K
20260506T18Z_MSC_RDPS_AirTemp_IsbL-0050_RLatLon0.09_PT030H.grib2 2026-05-07 02:56 309K
20260506T18Z_MSC_RDPS_AirTemp_IsbL-0100_RLatLon0.09_PT030H.grib2 2026-05-07 02:56 421K
20260506T18Z_MSC_RDPS_AirTemp_IsbL-0150_RLatLon0.09_PT030H.grib2 2026-05-07 02:56 410K
20260506T18Z_MSC_RDPS_AirTemp_IsbL-0175_RLatLon0.09_PT030H.grib2 2026-05-07 02:56 403K
20260506T18Z_MSC_RDPS_AirTemp_IsbL-0200_RLatLon0.09_PT030H.grib2 2026-05-07 02:56 408K
20260506T18Z_MSC_RDPS_AirTemp_IsbL-0225_RLatLon0.09_PT030H.grib2 2026-05-07 02:56 410K
20260506T18Z_MSC_RDPS_AirTemp_IsbL-0250_RLatLon0.09_PT030H.grib2 2026-05-07 02:56 415K
20260506T18Z_MSC_RDPS_AirTemp_IsbL-0275_RLatLon0.09_PT030H.grib2 2026-05-07 02:56 397K
20260506T18Z_MSC_RDPS_AirTemp_IsbL-0300_RLatLon0.09_PT030H.grib2 2026-05-07 02:56 406K
20260506T18Z_MSC_RDPS_AirTemp_IsbL-0350_RLatLon0.09_PT030H.grib2 2026-05-07 02:56 418K
20260506T18Z_MSC_RDPS_AirTemp_IsbL-0400_RLatLon0.09_PT030H.grib2 2026-05-07 02:56 420K
20260506T18Z_MSC_RDPS_AirTemp_IsbL-0450_RLatLon0.09_PT030H.grib2 2026-05-07 02:56 429K
20260506T18Z_MSC_RDPS_AirTemp_IsbL-0500_RLatLon0.09_PT030H.grib2 2026-05-07 02:56 406K
20260506T18Z_MSC_RDPS_AirTemp_IsbL-0550_RLatLon0.09_PT030H.grib2 2026-05-07 02:56 423K
20260506T18Z_MSC_RDPS_AirTemp_IsbL-0600_RLatLon0.09_PT030H.grib2 2026-05-07 02:56 440K
20260506T18Z_MSC_RDPS_AirTemp_IsbL-0650_RLatLon0.09_PT030H.grib2 2026-05-07 02:56 456K
20260506T18Z_MSC_RDPS_AirTemp_IsbL-0700_RLatLon0.09_PT030H.grib2 2026-05-07 02:56 482K
20260506T18Z_MSC_RDPS_AirTemp_IsbL-0750_RLatLon0.09_PT030H.grib2 2026-05-07 02:56 518K
20260506T18Z_MSC_RDPS_AirTemp_IsbL-0800_RLatLon0.09_PT030H.grib2 2026-05-07 02:56 448K
20260506T18Z_MSC_RDPS_AirTemp_IsbL-0850_RLatLon0.09_PT030H.grib2 2026-05-07 02:56 492K
20260506T18Z_MSC_RDPS_AirTemp_IsbL-0875_RLatLon0.09_PT030H.grib2 2026-05-07 02:56 511K
20260506T18Z_MSC_RDPS_AirTemp_IsbL-0900_RLatLon0.09_PT030H.grib2 2026-05-07 02:56 522K
20260506T18Z_MSC_RDPS_AirTemp_IsbL-0925_RLatLon0.09_PT030H.grib2 2026-05-07 02:56 525K
20260506T18Z_MSC_RDPS_AirTemp_IsbL-0950_RLatLon0.09_PT030H.grib2 2026-05-07 02:56 521K
20260506T18Z_MSC_RDPS_AirTemp_IsbL-0970_RLatLon0.09_PT030H.grib2 2026-05-07 02:56 517K
20260506T18Z_MSC_RDPS_AirTemp_IsbL-0985_RLatLon0.09_PT030H.grib2 2026-05-07 02:56 506K
20260506T18Z_MSC_RDPS_AirTemp_IsbL-1000_RLatLon0.09_PT030H.grib2 2026-05-07 02:56 496K
20260506T18Z_MSC_RDPS_AirTemp_IsbL-1015_RLatLon0.09_PT030H.grib2 2026-05-07 02:56 495K
20260506T18Z_MSC_RDPS_Albedo_Sfc_RLatLon0.09_PT030H.grib2 2026-05-07 02:56 154K
20260506T18Z_MSC_RDPS_CAPE_Sfc_RLatLon0.09_PT030H.grib2 2026-05-07 02:56 1.7M
20260506T18Z_MSC_RDPS_CIN_Sfc_RLatLon0.09_PT030H.grib2 2026-05-07 02:56 1.4M
20260506T18Z_MSC_RDPS_CloudWater_EAtm_RLatLon0.09_PT030H.grib2 2026-05-07 02:56 227K
20260506T18Z_MSC_RDPS_ConvectivePrecip-Accum_Sfc_RLatLon0.09_PT030H.grib2 2026-05-07 02:56 892K
20260506T18Z_MSC_RDPS_DewPointDepression_AGL-2m_RLatLon0.09_PT030H.grib2 2026-05-07 02:56 418K
20260506T18Z_MSC_RDPS_DewPointDepression_IsbL-0001_RLatLon0.09_PT030H.grib2 2026-05-07 02:56 193
20260506T18Z_MSC_RDPS_DewPointDepression_IsbL-0005_RLatLon0.09_PT030H.grib2 2026-05-07 02:56 193
20260506T18Z_MSC_RDPS_DewPointDepression_IsbL-0010_RLatLon0.09_PT030H.grib2 2026-05-07 02:56 193
20260506T18Z_MSC_RDPS_DewPointDepression_IsbL-0020_RLatLon0.09_PT030H.grib2 2026-05-07 02:56 193
20260506T18Z_MSC_RDPS_DewPointDepression_IsbL-0030_RLatLon0.09_PT030H.grib2 2026-05-07 02:56 193
20260506T18Z_MSC_RDPS_DewPointDepression_IsbL-0050_RLatLon0.09_PT030H.grib2 2026-05-07 02:56 81K
20260506T18Z_MSC_RDPS_DewPointDepression_IsbL-0100_RLatLon0.09_PT030H.grib2 2026-05-07 02:56 113K
20260506T18Z_MSC_RDPS_DewPointDepression_IsbL-0150_RLatLon0.09_PT030H.grib2 2026-05-07 02:56 139K
20260506T18Z_MSC_RDPS_DewPointDepression_IsbL-0175_RLatLon0.09_PT030H.grib2 2026-05-07 02:56 176K
20260506T18Z_MSC_RDPS_DewPointDepression_IsbL-0200_RLatLon0.09_PT030H.grib2 2026-05-07 02:56 218K
20260506T18Z_MSC_RDPS_DewPointDepression_IsbL-0225_RLatLon0.09_PT030H.grib2 2026-05-07 02:56 251K
20260506T18Z_MSC_RDPS_DewPointDepression_IsbL-0250_RLatLon0.09_PT030H.grib2 2026-05-07 02:56 299K
20260506T18Z_MSC_RDPS_DewPointDepression_IsbL-0275_RLatLon0.09_PT030H.grib2 2026-05-07 02:56 310K
20260506T18Z_MSC_RDPS_DewPointDepression_IsbL-0300_RLatLon0.09_PT030H.grib2 2026-05-07 02:56 329K
20260506T18Z_MSC_RDPS_DewPointDepression_IsbL-0350_RLatLon0.09_PT030H.grib2 2026-05-07 02:56 332K
20260506T18Z_MSC_RDPS_DewPointDepression_IsbL-0400_RLatLon0.09_PT030H.grib2 2026-05-07 02:56 339K
20260506T18Z_MSC_RDPS_DewPointDepression_IsbL-0450_RLatLon0.09_PT030H.grib2 2026-05-07 02:56 344K
20260506T18Z_MSC_RDPS_DewPointDepression_IsbL-0500_RLatLon0.09_PT030H.grib2 2026-05-07 02:56 352K
20260506T18Z_MSC_RDPS_DewPointDepression_IsbL-0550_RLatLon0.09_PT030H.grib2 2026-05-07 02:56 364K
20260506T18Z_MSC_RDPS_DewPointDepression_IsbL-0600_RLatLon0.09_PT030H.grib2 2026-05-07 02:56 378K
20260506T18Z_MSC_RDPS_DewPointDepression_IsbL-0650_RLatLon0.09_PT030H.grib2 2026-05-07 02:56 381K
20260506T18Z_MSC_RDPS_DewPointDepression_IsbL-0700_RLatLon0.09_PT030H.grib2 2026-05-07 02:56 397K
20260506T18Z_MSC_RDPS_DewPointDepression_IsbL-0750_RLatLon0.09_PT030H.grib2 2026-05-07 02:56 421K
20260506T18Z_MSC_RDPS_DewPointDepression_IsbL-0800_RLatLon0.09_PT030H.grib2 2026-05-07 02:56 455K
20260506T18Z_MSC_RDPS_DewPointDepression_IsbL-0850_RLatLon0.09_PT030H.grib2 2026-05-07 02:56 482K
20260506T18Z_MSC_RDPS_DewPointDepression_IsbL-0875_RLatLon0.09_PT030H.grib2 2026-05-07 02:56 479K
20260506T18Z_MSC_RDPS_DewPointDepression_IsbL-0900_RLatLon0.09_PT030H.grib2 2026-05-07 02:56 474K
20260506T18Z_MSC_RDPS_DewPointDepression_IsbL-0925_RLatLon0.09_PT030H.grib2 2026-05-07 02:56 461K
20260506T18Z_MSC_RDPS_DewPointDepression_IsbL-0950_RLatLon0.09_PT030H.grib2 2026-05-07 02:56 447K
20260506T18Z_MSC_RDPS_DewPointDepression_IsbL-0970_RLatLon0.09_PT030H.grib2 2026-05-07 02:56 439K
20260506T18Z_MSC_RDPS_DewPointDepression_IsbL-0985_RLatLon0.09_PT030H.grib2 2026-05-07 02:56 435K
20260506T18Z_MSC_RDPS_DewPointDepression_IsbL-1000_RLatLon0.09_PT030H.grib2 2026-05-07 02:56 432K
20260506T18Z_MSC_RDPS_DewPointDepression_IsbL-1015_RLatLon0.09_PT030H.grib2 2026-05-07 02:56 421K
20260506T18Z_MSC_RDPS_DewPoint_AGL-2m_RLatLon0.09_PT030H.grib2 2026-05-07 02:56 402K
20260506T18Z_MSC_RDPS_DownwardLongwaveRadiationFlux-Accum_Sfc_RLatLon0.09_PT030H.grib2 2026-05-07 02:56 478K
20260506T18Z_MSC_RDPS_DownwardShortwaveRadiationFlux-Accum_NTAtm_RLatLon0.09_PT030H.grib2 2026-05-07 02:56 136K
20260506T18Z_MSC_RDPS_DownwardShortwaveRadiationFlux-Accum_Sfc_RLatLon0.09_PT030H.grib2 2026-05-07 02:56 562K
20260506T18Z_MSC_RDPS_FreezingRain-Accum12h_Sfc_RLatLon0.09_PT030H.grib2 2026-05-07 02:56 69K
20260506T18Z_MSC_RDPS_FreezingRain-Accum1h_Sfc_RLatLon0.09_PT030H.grib2 2026-05-07 02:56 20K
20260506T18Z_MSC_RDPS_FreezingRain-Accum24h_Sfc_RLatLon0.09_PT030H.grib2 2026-05-07 02:56 119K
20260506T18Z_MSC_RDPS_FreezingRain-Accum3h_Sfc_RLatLon0.09_PT030H.grib2 2026-05-07 02:56 23K
20260506T18Z_MSC_RDPS_FreezingRain-Accum6h_Sfc_RLatLon0.09_PT030H.grib2 2026-05-07 02:56 37K
20260506T18Z_MSC_RDPS_FreezingRain-Accum_Sfc_RLatLon0.09_PT030H.grib2 2026-05-07 02:56 140K
20260506T18Z_MSC_RDPS_GeopotentialHeight_IsbL-0001_RLatLon0.09_PT030H.grib2 2026-05-07 02:56 338K
20260506T18Z_MSC_RDPS_GeopotentialHeight_IsbL-0005_RLatLon0.09_PT030H.grib2 2026-05-07 02:56 333K
20260506T18Z_MSC_RDPS_GeopotentialHeight_IsbL-0010_RLatLon0.09_PT030H.grib2 2026-05-07 02:56 335K
20260506T18Z_MSC_RDPS_GeopotentialHeight_IsbL-0020_RLatLon0.09_PT030H.grib2 2026-05-07 02:56 301K
20260506T18Z_MSC_RDPS_GeopotentialHeight_IsbL-0030_RLatLon0.09_PT030H.grib2 2026-05-07 02:56 399K
20260506T18Z_MSC_RDPS_GeopotentialHeight_IsbL-0050_RLatLon0.09_PT030H.grib2 2026-05-07 02:56 304K
20260506T18Z_MSC_RDPS_GeopotentialHeight_IsbL-0100_RLatLon0.09_PT030H.grib2 2026-05-07 02:56 284K
20260506T18Z_MSC_RDPS_GeopotentialHeight_IsbL-0150_RLatLon0.09_PT030H.grib2 2026-05-07 02:56 226K
20260506T18Z_MSC_RDPS_GeopotentialHeight_IsbL-0175_RLatLon0.09_PT030H.grib2 2026-05-07 02:56 229K
20260506T18Z_MSC_RDPS_GeopotentialHeight_IsbL-0200_RLatLon0.09_PT030H.grib2 2026-05-07 02:56 263K
20260506T18Z_MSC_RDPS_GeopotentialHeight_IsbL-0225_RLatLon0.09_PT030H.grib2 2026-05-07 02:56 265K
20260506T18Z_MSC_RDPS_GeopotentialHeight_IsbL-0250_RLatLon0.09_PT030H.grib2 2026-05-07 02:56 266K
20260506T18Z_MSC_RDPS_GeopotentialHeight_IsbL-0275_RLatLon0.09_PT030H.grib2 2026-05-07 02:56 265K
20260506T18Z_MSC_RDPS_GeopotentialHeight_IsbL-0300_RLatLon0.09_PT030H.grib2 2026-05-07 02:56 233K
20260506T18Z_MSC_RDPS_GeopotentialHeight_IsbL-0350_RLatLon0.09_PT030H.grib2 2026-05-07 02:56 230K
20260506T18Z_MSC_RDPS_GeopotentialHeight_IsbL-0400_RLatLon0.09_PT030H.grib2 2026-05-07 02:56 226K
20260506T18Z_MSC_RDPS_GeopotentialHeight_IsbL-0450_RLatLon0.09_PT030H.grib2 2026-05-07 02:56 293K
20260506T18Z_MSC_RDPS_GeopotentialHeight_IsbL-0500_RLatLon0.09_PT030H.grib2 2026-05-07 02:56 288K
20260506T18Z_MSC_RDPS_GeopotentialHeight_IsbL-0550_RLatLon0.09_PT030H.grib2 2026-05-07 02:56 285K
20260506T18Z_MSC_RDPS_GeopotentialHeight_IsbL-0600_RLatLon0.09_PT030H.grib2 2026-05-07 02:56 281K
20260506T18Z_MSC_RDPS_GeopotentialHeight_IsbL-0650_RLatLon0.09_PT030H.grib2 2026-05-07 02:56 253K
20260506T18Z_MSC_RDPS_GeopotentialHeight_IsbL-0700_RLatLon0.09_PT030H.grib2 2026-05-07 02:56 333K
20260506T18Z_MSC_RDPS_GeopotentialHeight_IsbL-0750_RLatLon0.09_PT030H.grib2 2026-05-07 02:56 335K
20260506T18Z_MSC_RDPS_GeopotentialHeight_IsbL-0800_RLatLon0.09_PT030H.grib2 2026-05-07 02:56 372K
20260506T18Z_MSC_RDPS_GeopotentialHeight_IsbL-0850_RLatLon0.09_PT030H.grib2 2026-05-07 02:56 380K
20260506T18Z_MSC_RDPS_GeopotentialHeight_IsbL-0875_RLatLon0.09_PT030H.grib2 2026-05-07 02:56 383K
20260506T18Z_MSC_RDPS_GeopotentialHeight_IsbL-0900_RLatLon0.09_PT030H.grib2 2026-05-07 02:56 387K
20260506T18Z_MSC_RDPS_GeopotentialHeight_IsbL-0925_RLatLon0.09_PT030H.grib2 2026-05-07 02:56 390K
20260506T18Z_MSC_RDPS_GeopotentialHeight_IsbL-0950_RLatLon0.09_PT030H.grib2 2026-05-07 02:56 393K
20260506T18Z_MSC_RDPS_GeopotentialHeight_IsbL-0970_RLatLon0.09_PT030H.grib2 2026-05-07 02:56 370K
20260506T18Z_MSC_RDPS_GeopotentialHeight_IsbL-0985_RLatLon0.09_PT030H.grib2 2026-05-07 02:56 380K
20260506T18Z_MSC_RDPS_GeopotentialHeight_IsbL-1000_RLatLon0.09_PT030H.grib2 2026-05-07 02:56 419K
20260506T18Z_MSC_RDPS_GeopotentialHeight_IsbL-1015_RLatLon0.09_PT030H.grib2 2026-05-07 02:56 435K
20260506T18Z_MSC_RDPS_Humidex_Sfc_RLatLon0.09_PT030H.grib2 2026-05-07 02:56 2.4M
20260506T18Z_MSC_RDPS_IcePellets-Accum12h_Sfc_RLatLon0.09_PT030H.grib2 2026-05-07 02:56 8.9K
20260506T18Z_MSC_RDPS_IcePellets-Accum1h_Sfc_RLatLon0.09_PT030H.grib2 2026-05-07 02:56 4.3K
20260506T18Z_MSC_RDPS_IcePellets-Accum24h_Sfc_RLatLon0.09_PT030H.grib2 2026-05-07 02:56 14K
20260506T18Z_MSC_RDPS_IcePellets-Accum3h_Sfc_RLatLon0.09_PT030H.grib2 2026-05-07 02:56 5.0K
20260506T18Z_MSC_RDPS_IcePellets-Accum6h_Sfc_RLatLon0.09_PT030H.grib2 2026-05-07 02:56 6.3K
20260506T18Z_MSC_RDPS_IcePellets-Accum_Sfc_RLatLon0.09_PT030H.grib2 2026-05-07 02:56 19K
20260506T18Z_MSC_RDPS_KIndex_Sfc_RLatLon0.09_PT030H.grib2 2026-05-07 02:56 2.5M
20260506T18Z_MSC_RDPS_LatentHeatNetFlux_Sfc_RLatLon0.09_PT030H.grib2 2026-05-07 02:56 361K
20260506T18Z_MSC_RDPS_LiftedIndex-MU-VT_IsbL-0500_RLatLon0.09_PT030H.grib2 2026-05-07 02:56 2.4M
20260506T18Z_MSC_RDPS_NetLongwaveRadiationFlux-Accum_Sfc_RLatLon0.09_PT030H.grib2 2026-05-07 02:56 485K
20260506T18Z_MSC_RDPS_NetShortwaveRadiationFlux-Accum_Sfc_RLatLon0.09_PT030H.grib2 2026-05-07 02:56 558K
20260506T18Z_MSC_RDPS_PlanetaryBoundaryLayerHeight_Sfc_RLatLon0.09_PT030H.grib2 2026-05-07 02:56 1.0M
20260506T18Z_MSC_RDPS_Precip-Accum12h_Sfc_RLatLon0.09_PT030H.grib2 2026-05-07 02:56 1.7M
20260506T18Z_MSC_RDPS_Precip-Accum1h_Sfc_RLatLon0.09_PT030H.grib2 2026-05-07 02:56 1.2M
20260506T18Z_MSC_RDPS_Precip-Accum24h_Sfc_RLatLon0.09_PT030H.grib2 2026-05-07 02:56 2.0M
20260506T18Z_MSC_RDPS_Precip-Accum3h_Sfc_RLatLon0.09_PT030H.grib2 2026-05-07 02:56 1.3M
20260506T18Z_MSC_RDPS_Precip-Accum6h_Sfc_RLatLon0.09_PT030H.grib2 2026-05-07 02:56 1.5M
20260506T18Z_MSC_RDPS_Precip-Accum_Sfc_RLatLon0.09_PT030H.grib2 2026-05-07 02:56 1.9M
20260506T18Z_MSC_RDPS_PrecipRate_Sfc_RLatLon0.09_PT030H.grib2 2026-05-07 02:56 186K
20260506T18Z_MSC_RDPS_PrecipType-Instant_Sfc_RLatLon0.09_PT030H.grib2 2026-05-07 02:56 573K
20260506T18Z_MSC_RDPS_Pressure-Trend3h_Sfc_RLatLon0.09_PT030H.grib2 2026-05-07 02:56 1.2M
20260506T18Z_MSC_RDPS_Pressure_MSL_RLatLon0.09_PT030H.grib2 2026-05-07 02:56 322K
20260506T18Z_MSC_RDPS_Pressure_PVU-1.5_RLatLon0.09_PT030H.grib2 2026-05-07 02:56 2.5M
20260506T18Z_MSC_RDPS_Pressure_PVU-1_RLatLon0.09_PT030H.grib2 2026-05-07 02:56 2.4M
20260506T18Z_MSC_RDPS_Pressure_PVU-2_RLatLon0.09_PT030H.grib2 2026-05-07 02:56 2.4M
20260506T18Z_MSC_RDPS_Pressure_Sfc_RLatLon0.09_PT030H.grib2 2026-05-07 02:56 497K
20260506T18Z_MSC_RDPS_RadiativeTemp_Sfc_RLatLon0.09_PT030H.grib2 2026-05-07 02:56 315K
20260506T18Z_MSC_RDPS_Rain-Accum12h_Sfc_RLatLon0.09_PT030H.grib2 2026-05-07 02:56 1.2M
20260506T18Z_MSC_RDPS_Rain-Accum1h_Sfc_RLatLon0.09_PT030H.grib2 2026-05-07 02:56 619K
20260506T18Z_MSC_RDPS_Rain-Accum24h_Sfc_RLatLon0.09_PT030H.grib2 2026-05-07 02:56 1.5M
20260506T18Z_MSC_RDPS_Rain-Accum3h_Sfc_RLatLon0.09_PT030H.grib2 2026-05-07 02:56 719K
20260506T18Z_MSC_RDPS_Rain-Accum6h_Sfc_RLatLon0.09_PT030H.grib2 2026-05-07 02:56 1.0M
20260506T18Z_MSC_RDPS_Rain-Accum_Sfc_RLatLon0.09_PT030H.grib2 2026-05-07 02:56 1.5M
20260506T18Z_MSC_RDPS_RelativeHumidity_AGL-2m_RLatLon0.09_PT030H.grib2 2026-05-07 02:56 1.0M
20260506T18Z_MSC_RDPS_RelativeHumidity_IsbL-0010_RLatLon0.09_PT030H.grib2 2026-05-07 02:56 585K
20260506T18Z_MSC_RDPS_RelativeHumidity_IsbL-0020_RLatLon0.09_PT030H.grib2 2026-05-07 02:56 654K
20260506T18Z_MSC_RDPS_RelativeHumidity_IsbL-0030_RLatLon0.09_PT030H.grib2 2026-05-07 02:56 602K
20260506T18Z_MSC_RDPS_RelativeHumidity_IsbL-0050_RLatLon0.09_PT030H.grib2 2026-05-07 02:56 355K
20260506T18Z_MSC_RDPS_RelativeHumidity_IsbL-0100_RLatLon0.09_PT030H.grib2 2026-05-07 02:56 280K
20260506T18Z_MSC_RDPS_RelativeHumidity_IsbL-0150_RLatLon0.09_PT030H.grib2 2026-05-07 02:56 412K
20260506T18Z_MSC_RDPS_RelativeHumidity_IsbL-0175_RLatLon0.09_PT030H.grib2 2026-05-07 02:56 464K
20260506T18Z_MSC_RDPS_RelativeHumidity_IsbL-0200_RLatLon0.09_PT030H.grib2 2026-05-07 02:56 540K
20260506T18Z_MSC_RDPS_RelativeHumidity_IsbL-0225_RLatLon0.09_PT030H.grib2 2026-05-07 02:56 605K
20260506T18Z_MSC_RDPS_RelativeHumidity_IsbL-0250_RLatLon0.09_PT030H.grib2 2026-05-07 02:56 667K
20260506T18Z_MSC_RDPS_RelativeHumidity_IsbL-0275_RLatLon0.09_PT030H.grib2 2026-05-07 02:56 696K
20260506T18Z_MSC_RDPS_RelativeHumidity_IsbL-0300_RLatLon0.09_PT030H.grib2 2026-05-07 02:56 745K
20260506T18Z_MSC_RDPS_RelativeHumidity_IsbL-0350_RLatLon0.09_PT030H.grib2 2026-05-07 02:56 764K
20260506T18Z_MSC_RDPS_RelativeHumidity_IsbL-0400_RLatLon0.09_PT030H.grib2 2026-05-07 02:56 782K
20260506T18Z_MSC_RDPS_RelativeHumidity_IsbL-0450_RLatLon0.09_PT030H.grib2 2026-05-07 02:56 790K
20260506T18Z_MSC_RDPS_RelativeHumidity_IsbL-0500_RLatLon0.09_PT030H.grib2 2026-05-07 02:56 802K
20260506T18Z_MSC_RDPS_RelativeHumidity_IsbL-0550_RLatLon0.09_PT030H.grib2 2026-05-07 02:56 821K
20260506T18Z_MSC_RDPS_RelativeHumidity_IsbL-0600_RLatLon0.09_PT030H.grib2 2026-05-07 02:56 855K
20260506T18Z_MSC_RDPS_RelativeHumidity_IsbL-0650_RLatLon0.09_PT030H.grib2 2026-05-07 02:56 855K
20260506T18Z_MSC_RDPS_RelativeHumidity_IsbL-0700_RLatLon0.09_PT030H.grib2 2026-05-07 02:56 893K
20260506T18Z_MSC_RDPS_RelativeHumidity_IsbL-0750_RLatLon0.09_PT030H.grib2 2026-05-07 02:56 939K
20260506T18Z_MSC_RDPS_RelativeHumidity_IsbL-0800_RLatLon0.09_PT030H.grib2 2026-05-07 02:56 1.0M
20260506T18Z_MSC_RDPS_RelativeHumidity_IsbL-0850_RLatLon0.09_PT030H.grib2 2026-05-07 02:56 1.0M
20260506T18Z_MSC_RDPS_RelativeHumidity_IsbL-0875_RLatLon0.09_PT030H.grib2 2026-05-07 02:56 1.1M
20260506T18Z_MSC_RDPS_RelativeHumidity_IsbL-0900_RLatLon0.09_PT030H.grib2 2026-05-07 02:56 1.1M
20260506T18Z_MSC_RDPS_RelativeHumidity_IsbL-0925_RLatLon0.09_PT030H.grib2 2026-05-07 02:56 1.1M
20260506T18Z_MSC_RDPS_RelativeHumidity_IsbL-0950_RLatLon0.09_PT030H.grib2 2026-05-07 02:56 1.1M
20260506T18Z_MSC_RDPS_RelativeHumidity_IsbL-0970_RLatLon0.09_PT030H.grib2 2026-05-07 02:56 1.0M
20260506T18Z_MSC_RDPS_RelativeHumidity_IsbL-0985_RLatLon0.09_PT030H.grib2 2026-05-07 02:56 1.0M
20260506T18Z_MSC_RDPS_RelativeHumidity_IsbL-1000_RLatLon0.09_PT030H.grib2 2026-05-07 02:56 1.0M
20260506T18Z_MSC_RDPS_RelativeHumidity_IsbL-1015_RLatLon0.09_PT030H.grib2 2026-05-07 02:56 1.0M
20260506T18Z_MSC_RDPS_Runoff-Accum_Sfc_RLatLon0.09_PT030H.grib2 2026-05-07 02:56 62K
20260506T18Z_MSC_RDPS_SWEATIndex_Sfc_RLatLon0.09_PT030H.grib2 2026-05-07 02:56 2.4M
20260506T18Z_MSC_RDPS_SeeingIndex_EAtm_RLatLon0.09_PT030H.grib2 2026-05-07 02:56 1.0M
20260506T18Z_MSC_RDPS_SensibleHeatNetFlux_Sfc_RLatLon0.09_PT030H.grib2 2026-05-07 02:56 313K
20260506T18Z_MSC_RDPS_ShowalterIndex_IsbL-0500_RLatLon0.09_PT030H.grib2 2026-05-07 02:56 2.6M
20260506T18Z_MSC_RDPS_SkyTransparencyIndex_EAtm_RLatLon0.09_PT030H.grib2 2026-05-07 02:56 731K
20260506T18Z_MSC_RDPS_Snow-Accum12h_Sfc_RLatLon0.09_PT030H.grib2 2026-05-07 02:56 569K
20260506T18Z_MSC_RDPS_Snow-Accum1h_Sfc_RLatLon0.09_PT030H.grib2 2026-05-07 02:56 423K
20260506T18Z_MSC_RDPS_Snow-Accum24h_Sfc_RLatLon0.09_PT030H.grib2 2026-05-07 02:56 595K
20260506T18Z_MSC_RDPS_Snow-Accum3h_Sfc_RLatLon0.09_PT030H.grib2 2026-05-07 02:56 428K
20260506T18Z_MSC_RDPS_Snow-Accum6h_Sfc_RLatLon0.09_PT030H.grib2 2026-05-07 02:56 546K
20260506T18Z_MSC_RDPS_Snow-Accum_Sfc_RLatLon0.09_PT030H.grib2 2026-05-07 02:56 692K
20260506T18Z_MSC_RDPS_SnowDensity_Sfc_RLatLon0.09_PT030H.grib2 2026-05-07 02:56 173K
20260506T18Z_MSC_RDPS_SnowDepth_Sfc_RLatLon0.09_PT030H.grib2 2026-05-07 02:56 636K
20260506T18Z_MSC_RDPS_SoilTemp_DBS-0to10cm_RLatLon0.09_PT030H.grib2 2026-05-07 02:56 234K
20260506T18Z_MSC_RDPS_SoilTemp_Sfc_RLatLon0.09_PT030H.grib2 2026-05-07 02:56 283K
20260506T18Z_MSC_RDPS_SoilVolumetricIceContent_Sfc_RLatLon0.09_PT030H.grib2 2026-05-07 02:56 148K
20260506T18Z_MSC_RDPS_SoilVolumetricWaterContent_DBS-0to10cm_RLatLon0.09_PT030H.grib2 2026-05-07 02:56 283K
20260506T18Z_MSC_RDPS_SoilVolumetricWaterContent_DBS-0to1cm_RLatLon0.09_PT030H.grib2 2026-05-07 02:56 340K
20260506T18Z_MSC_RDPS_SpecificHumidity_AGL-120m_RLatLon0.09_PT030H.grib2 2026-05-07 02:56 501K
20260506T18Z_MSC_RDPS_SpecificHumidity_AGL-2m_RLatLon0.09_PT030H.grib2 2026-05-07 02:56 675K
20260506T18Z_MSC_RDPS_SpecificHumidity_AGL-40m_RLatLon0.09_PT030H.grib2 2026-05-07 02:56 508K
20260506T18Z_MSC_RDPS_SpecificHumidity_AGL-80m_RLatLon0.09_PT030H.grib2 2026-05-07 02:56 503K
20260506T18Z_MSC_RDPS_SpecificHumidity_IsbL-0001_RLatLon0.09_PT030H.grib2 2026-05-07 02:56 409K
20260506T18Z_MSC_RDPS_SpecificHumidity_IsbL-0005_RLatLon0.09_PT030H.grib2 2026-05-07 02:56 376K
20260506T18Z_MSC_RDPS_SpecificHumidity_IsbL-0010_RLatLon0.09_PT030H.grib2 2026-05-07 02:56 411K
20260506T18Z_MSC_RDPS_SpecificHumidity_IsbL-0020_RLatLon0.09_PT030H.grib2 2026-05-07 02:56 386K
20260506T18Z_MSC_RDPS_SpecificHumidity_IsbL-0030_RLatLon0.09_PT030H.grib2 2026-05-07 02:56 373K
20260506T18Z_MSC_RDPS_SpecificHumidity_IsbL-0050_RLatLon0.09_PT030H.grib2 2026-05-07 02:56 482K
20260506T18Z_MSC_RDPS_SpecificHumidity_IsbL-0100_RLatLon0.09_PT030H.grib2 2026-05-07 02:56 444K
20260506T18Z_MSC_RDPS_SpecificHumidity_IsbL-0150_RLatLon0.09_PT030H.grib2 2026-05-07 02:56 456K
20260506T18Z_MSC_RDPS_SpecificHumidity_IsbL-0175_RLatLon0.09_PT030H.grib2 2026-05-07 02:56 435K
20260506T18Z_MSC_RDPS_SpecificHumidity_IsbL-0200_RLatLon0.09_PT030H.grib2 2026-05-07 02:56 469K
20260506T18Z_MSC_RDPS_SpecificHumidity_IsbL-0225_RLatLon0.09_PT030H.grib2 2026-05-07 02:56 452K
20260506T18Z_MSC_RDPS_SpecificHumidity_IsbL-0250_RLatLon0.09_PT030H.grib2 2026-05-07 02:56 553K
20260506T18Z_MSC_RDPS_SpecificHumidity_IsbL-0275_RLatLon0.09_PT030H.grib2 2026-05-07 02:56 470K
20260506T18Z_MSC_RDPS_SpecificHumidity_IsbL-0300_RLatLon0.09_PT030H.grib2 2026-05-07 02:56 544K
20260506T18Z_MSC_RDPS_SpecificHumidity_IsbL-0350_RLatLon0.09_PT030H.grib2 2026-05-07 02:56 534K
20260506T18Z_MSC_RDPS_SpecificHumidity_IsbL-0400_RLatLon0.09_PT030H.grib2 2026-05-07 02:56 518K
20260506T18Z_MSC_RDPS_SpecificHumidity_IsbL-0450_RLatLon0.09_PT030H.grib2 2026-05-07 02:56 572K
20260506T18Z_MSC_RDPS_SpecificHumidity_IsbL-0500_RLatLon0.09_PT030H.grib2 2026-05-07 02:56 511K
20260506T18Z_MSC_RDPS_SpecificHumidity_IsbL-0550_RLatLon0.09_PT030H.grib2 2026-05-07 02:56 585K
20260506T18Z_MSC_RDPS_SpecificHumidity_IsbL-0600_RLatLon0.09_PT030H.grib2 2026-05-07 02:56 642K
20260506T18Z_MSC_RDPS_SpecificHumidity_IsbL-0650_RLatLon0.09_PT030H.grib2 2026-05-07 02:56 558K
20260506T18Z_MSC_RDPS_SpecificHumidity_IsbL-0700_RLatLon0.09_PT030H.grib2 2026-05-07 02:56 607K
20260506T18Z_MSC_RDPS_SpecificHumidity_IsbL-0750_RLatLon0.09_PT030H.grib2 2026-05-07 02:56 679K
20260506T18Z_MSC_RDPS_SpecificHumidity_IsbL-0800_RLatLon0.09_PT030H.grib2 2026-05-07 02:56 754K
20260506T18Z_MSC_RDPS_SpecificHumidity_IsbL-0850_RLatLon0.09_PT030H.grib2 2026-05-07 02:56 823K
20260506T18Z_MSC_RDPS_SpecificHumidity_IsbL-0875_RLatLon0.09_PT030H.grib2 2026-05-07 02:56 708K
20260506T18Z_MSC_RDPS_SpecificHumidity_IsbL-0900_RLatLon0.09_PT030H.grib2 2026-05-07 02:56 722K
20260506T18Z_MSC_RDPS_SpecificHumidity_IsbL-0925_RLatLon0.09_PT030H.grib2 2026-05-07 02:56 727K
20260506T18Z_MSC_RDPS_SpecificHumidity_IsbL-0950_RLatLon0.09_PT030H.grib2 2026-05-07 02:56 722K
20260506T18Z_MSC_RDPS_SpecificHumidity_IsbL-0970_RLatLon0.09_PT030H.grib2 2026-05-07 02:56 715K
20260506T18Z_MSC_RDPS_SpecificHumidity_IsbL-0985_RLatLon0.09_PT030H.grib2 2026-05-07 02:56 706K
20260506T18Z_MSC_RDPS_SpecificHumidity_IsbL-1000_RLatLon0.09_PT030H.grib2 2026-05-07 02:56 700K
20260506T18Z_MSC_RDPS_SpecificHumidity_IsbL-1015_RLatLon0.09_PT030H.grib2 2026-05-07 02:56 689K
20260506T18Z_MSC_RDPS_SpecificHumidity_Sfc_RLatLon0.09_PT030H.grib2 2026-05-07 02:56 343K
20260506T18Z_MSC_RDPS_StormRelativeHelicity_EtaL-10000_RLatLon0.09_PT030H.grib2 2026-05-07 02:56 1.1M
20260506T18Z_MSC_RDPS_StormSeverityIndex_EtaL-10000_RLatLon0.09_PT030H.grib2 2026-05-07 02:56 1.1M
20260506T18Z_MSC_RDPS_Thickness_IsbL-0850to0700_RLatLon0.09_PT030H.grib2 2026-05-07 02:56 172K
20260506T18Z_MSC_RDPS_Thickness_IsbL-1000to0500_RLatLon0.09_PT030H.grib2 2026-05-07 02:56 192K
20260506T18Z_MSC_RDPS_Thickness_IsbL-1000to0850_RLatLon0.09_PT030H.grib2 2026-05-07 02:56 181K
20260506T18Z_MSC_RDPS_TotalCloudCover_Sfc_RLatLon0.09_PT030H.grib2 2026-05-07 02:56 661K
20260506T18Z_MSC_RDPS_TotalTotalsIndex_Sfc_RLatLon0.09_PT030H.grib2 2026-05-07 02:56 2.4M
20260506T18Z_MSC_RDPS_UVIndex-ClearSky_Sfc_RLatLon0.09_PT030H.grib2 2026-05-07 02:56 195K
20260506T18Z_MSC_RDPS_UVIndex_Sfc_RLatLon0.09_PT030H.grib2 2026-05-07 02:56 405K
20260506T18Z_MSC_RDPS_UpwardLongwaveRadiationFlux_NTAtm_RLatLon0.09_PT030H.grib2 2026-05-07 02:56 493K
20260506T18Z_MSC_RDPS_UpwardShortwaveRadiationFlux_NTAtm_RLatLon0.09_PT030H.grib2 2026-05-07 02:56 346K
20260506T18Z_MSC_RDPS_VerticalVelocity_IsbL-0250_RLatLon0.09_PT030H.grib2 2026-05-07 02:56 574K
20260506T18Z_MSC_RDPS_VerticalVelocity_IsbL-0500_RLatLon0.09_PT030H.grib2 2026-05-07 02:56 665K
20260506T18Z_MSC_RDPS_VerticalVelocity_IsbL-0700_RLatLon0.09_PT030H.grib2 2026-05-07 02:56 589K
20260506T18Z_MSC_RDPS_VerticalVelocity_IsbL-0850_RLatLon0.09_PT030H.grib2 2026-05-07 02:56 688K
20260506T18Z_MSC_RDPS_VerticalWindShear_EtaL-6500_RLatLon0.09_PT030H.grib2 2026-05-07 02:56 1.2M
20260506T18Z_MSC_RDPS_WindChill_Sfc_RLatLon0.09_PT030H.grib2 2026-05-07 02:56 1.2M
20260506T18Z_MSC_RDPS_WindDir_AGL-10m_RLatLon0.09_PT030H.grib2 2026-05-07 02:56 969K
20260506T18Z_MSC_RDPS_WindDir_AGL-120m_RLatLon0.09_PT030H.grib2 2026-05-07 02:56 613K
20260506T18Z_MSC_RDPS_WindDir_AGL-40m_RLatLon0.09_PT030H.grib2 2026-05-07 02:56 638K
20260506T18Z_MSC_RDPS_WindDir_AGL-80m_RLatLon0.09_PT030H.grib2 2026-05-07 02:56 623K
20260506T18Z_MSC_RDPS_WindDir_IsbL-0001_RLatLon0.09_PT030H.grib2 2026-05-07 02:56 305K
20260506T18Z_MSC_RDPS_WindDir_IsbL-0005_RLatLon0.09_PT030H.grib2 2026-05-07 02:56 377K
20260506T18Z_MSC_RDPS_WindDir_IsbL-0010_RLatLon0.09_PT030H.grib2 2026-05-07 02:56 389K
20260506T18Z_MSC_RDPS_WindDir_IsbL-0020_RLatLon0.09_PT030H.grib2 2026-05-07 02:56 426K
20260506T18Z_MSC_RDPS_WindDir_IsbL-0030_RLatLon0.09_PT030H.grib2 2026-05-07 02:56 411K
20260506T18Z_MSC_RDPS_WindDir_IsbL-0050_RLatLon0.09_PT030H.grib2 2026-05-07 02:56 438K
20260506T18Z_MSC_RDPS_WindDir_IsbL-0100_RLatLon0.09_PT030H.grib2 2026-05-07 02:56 411K
20260506T18Z_MSC_RDPS_WindDir_IsbL-0150_RLatLon0.09_PT030H.grib2 2026-05-07 02:56 417K
20260506T18Z_MSC_RDPS_WindDir_IsbL-0175_RLatLon0.09_PT030H.grib2 2026-05-07 02:56 441K
20260506T18Z_MSC_RDPS_WindDir_IsbL-0200_RLatLon0.09_PT030H.grib2 2026-05-07 02:56 459K
20260506T18Z_MSC_RDPS_WindDir_IsbL-0225_RLatLon0.09_PT030H.grib2 2026-05-07 02:56 460K
20260506T18Z_MSC_RDPS_WindDir_IsbL-0250_RLatLon0.09_PT030H.grib2 2026-05-07 02:56 452K
20260506T18Z_MSC_RDPS_WindDir_IsbL-0275_RLatLon0.09_PT030H.grib2 2026-05-07 02:56 468K
20260506T18Z_MSC_RDPS_WindDir_IsbL-0300_RLatLon0.09_PT030H.grib2 2026-05-07 02:56 465K
20260506T18Z_MSC_RDPS_WindDir_IsbL-0350_RLatLon0.09_PT030H.grib2 2026-05-07 02:56 491K
20260506T18Z_MSC_RDPS_WindDir_IsbL-0400_RLatLon0.09_PT030H.grib2 2026-05-07 02:56 508K
20260506T18Z_MSC_RDPS_WindDir_IsbL-0450_RLatLon0.09_PT030H.grib2 2026-05-07 02:56 528K
20260506T18Z_MSC_RDPS_WindDir_IsbL-0500_RLatLon0.09_PT030H.grib2 2026-05-07 02:56 553K
20260506T18Z_MSC_RDPS_WindDir_IsbL-0550_RLatLon0.09_PT030H.grib2 2026-05-07 02:56 571K
20260506T18Z_MSC_RDPS_WindDir_IsbL-0600_RLatLon0.09_PT030H.grib2 2026-05-07 02:56 597K
20260506T18Z_MSC_RDPS_WindDir_IsbL-0650_RLatLon0.09_PT030H.grib2 2026-05-07 02:56 638K
20260506T18Z_MSC_RDPS_WindDir_IsbL-0700_RLatLon0.09_PT030H.grib2 2026-05-07 02:56 685K
20260506T18Z_MSC_RDPS_WindDir_IsbL-0750_RLatLon0.09_PT030H.grib2 2026-05-07 02:56 734K
20260506T18Z_MSC_RDPS_WindDir_IsbL-0800_RLatLon0.09_PT030H.grib2 2026-05-07 02:56 796K
20260506T18Z_MSC_RDPS_WindDir_IsbL-0850_RLatLon0.09_PT030H.grib2 2026-05-07 02:56 862K
20260506T18Z_MSC_RDPS_WindDir_IsbL-0875_RLatLon0.09_PT030H.grib2 2026-05-07 02:56 885K
20260506T18Z_MSC_RDPS_WindDir_IsbL-0900_RLatLon0.09_PT030H.grib2 2026-05-07 02:56 905K
20260506T18Z_MSC_RDPS_WindDir_IsbL-0925_RLatLon0.09_PT030H.grib2 2026-05-07 02:56 918K
20260506T18Z_MSC_RDPS_WindDir_IsbL-0950_RLatLon0.09_PT030H.grib2 2026-05-07 02:56 919K
20260506T18Z_MSC_RDPS_WindDir_IsbL-0970_RLatLon0.09_PT030H.grib2 2026-05-07 02:56 922K
20260506T18Z_MSC_RDPS_WindDir_IsbL-0985_RLatLon0.09_PT030H.grib2 2026-05-07 02:56 930K
20260506T18Z_MSC_RDPS_WindDir_IsbL-1000_RLatLon0.09_PT030H.grib2 2026-05-07 02:56 944K
20260506T18Z_MSC_RDPS_WindDir_IsbL-1015_RLatLon0.09_PT030H.grib2 2026-05-07 02:56 962K
20260506T18Z_MSC_RDPS_WindGust-Max_AGL-10m_RLatLon0.09_PT030H.grib2 2026-05-07 02:56 1.0M
20260506T18Z_MSC_RDPS_WindGust-Min_AGL-10m_RLatLon0.09_PT030H.grib2 2026-05-07 02:56 968K
20260506T18Z_MSC_RDPS_WindGust_AGL-10m_RLatLon0.09_PT030H.grib2 2026-05-07 02:56 1.0M
20260506T18Z_MSC_RDPS_WindSpeed_AGL-10m_RLatLon0.09_PT030H.grib2 2026-05-07 02:56 830K
20260506T18Z_MSC_RDPS_WindSpeed_AGL-120m_RLatLon0.09_PT030H.grib2 2026-05-07 02:56 527K
20260506T18Z_MSC_RDPS_WindSpeed_AGL-40m_RLatLon0.09_PT030H.grib2 2026-05-07 02:56 661K
20260506T18Z_MSC_RDPS_WindSpeed_AGL-80m_RLatLon0.09_PT030H.grib2 2026-05-07 02:56 657K
20260506T18Z_MSC_RDPS_WindSpeed_IsbL-0001_RLatLon0.09_PT030H.grib2 2026-05-07 02:56 333K
20260506T18Z_MSC_RDPS_WindSpeed_IsbL-0005_RLatLon0.09_PT030H.grib2 2026-05-07 02:56 296K
20260506T18Z_MSC_RDPS_WindSpeed_IsbL-0010_RLatLon0.09_PT030H.grib2 2026-05-07 02:56 399K
20260506T18Z_MSC_RDPS_WindSpeed_IsbL-0020_RLatLon0.09_PT030H.grib2 2026-05-07 02:56 422K
20260506T18Z_MSC_RDPS_WindSpeed_IsbL-0030_RLatLon0.09_PT030H.grib2 2026-05-07 02:56 320K
20260506T18Z_MSC_RDPS_WindSpeed_IsbL-0050_RLatLon0.09_PT030H.grib2 2026-05-07 02:56 345K
20260506T18Z_MSC_RDPS_WindSpeed_IsbL-0100_RLatLon0.09_PT030H.grib2 2026-05-07 02:56 431K
20260506T18Z_MSC_RDPS_WindSpeed_IsbL-0150_RLatLon0.09_PT030H.grib2 2026-05-07 02:56 399K
20260506T18Z_MSC_RDPS_WindSpeed_IsbL-0175_RLatLon0.09_PT030H.grib2 2026-05-07 02:56 423K
20260506T18Z_MSC_RDPS_WindSpeed_IsbL-0200_RLatLon0.09_PT030H.grib2 2026-05-07 02:56 439K
20260506T18Z_MSC_RDPS_WindSpeed_IsbL-0225_RLatLon0.09_PT030H.grib2 2026-05-07 02:56 441K
20260506T18Z_MSC_RDPS_WindSpeed_IsbL-0250_RLatLon0.09_PT030H.grib2 2026-05-07 02:56 440K
20260506T18Z_MSC_RDPS_WindSpeed_IsbL-0275_RLatLon0.09_PT030H.grib2 2026-05-07 02:56 456K
20260506T18Z_MSC_RDPS_WindSpeed_IsbL-0300_RLatLon0.09_PT030H.grib2 2026-05-07 02:56 452K
20260506T18Z_MSC_RDPS_WindSpeed_IsbL-0350_RLatLon0.09_PT030H.grib2 2026-05-07 02:56 467K
20260506T18Z_MSC_RDPS_WindSpeed_IsbL-0400_RLatLon0.09_PT030H.grib2 2026-05-07 02:56 456K
20260506T18Z_MSC_RDPS_WindSpeed_IsbL-0450_RLatLon0.09_PT030H.grib2 2026-05-07 02:56 458K
20260506T18Z_MSC_RDPS_WindSpeed_IsbL-0500_RLatLon0.09_PT030H.grib2 2026-05-07 02:56 577K
20260506T18Z_MSC_RDPS_WindSpeed_IsbL-0550_RLatLon0.09_PT030H.grib2 2026-05-07 02:56 579K
20260506T18Z_MSC_RDPS_WindSpeed_IsbL-0600_RLatLon0.09_PT030H.grib2 2026-05-07 02:56 631K
20260506T18Z_MSC_RDPS_WindSpeed_IsbL-0650_RLatLon0.09_PT030H.grib2 2026-05-07 02:56 653K
20260506T18Z_MSC_RDPS_WindSpeed_IsbL-0700_RLatLon0.09_PT030H.grib2 2026-05-07 02:56 678K
20260506T18Z_MSC_RDPS_WindSpeed_IsbL-0750_RLatLon0.09_PT030H.grib2 2026-05-07 02:56 710K
20260506T18Z_MSC_RDPS_WindSpeed_IsbL-0800_RLatLon0.09_PT030H.grib2 2026-05-07 02:56 756K
20260506T18Z_MSC_RDPS_WindSpeed_IsbL-0850_RLatLon0.09_PT030H.grib2 2026-05-07 02:56 804K
20260506T18Z_MSC_RDPS_WindSpeed_IsbL-0875_RLatLon0.09_PT030H.grib2 2026-05-07 02:56 826K
20260506T18Z_MSC_RDPS_WindSpeed_IsbL-0900_RLatLon0.09_PT030H.grib2 2026-05-07 02:56 842K
20260506T18Z_MSC_RDPS_WindSpeed_IsbL-0925_RLatLon0.09_PT030H.grib2 2026-05-07 02:56 855K
20260506T18Z_MSC_RDPS_WindSpeed_IsbL-0950_RLatLon0.09_PT030H.grib2 2026-05-07 02:56 857K
20260506T18Z_MSC_RDPS_WindSpeed_IsbL-0970_RLatLon0.09_PT030H.grib2 2026-05-07 02:56 853K
20260506T18Z_MSC_RDPS_WindSpeed_IsbL-0985_RLatLon0.09_PT030H.grib2 2026-05-07 02:56 848K
20260506T18Z_MSC_RDPS_WindSpeed_IsbL-1000_RLatLon0.09_PT030H.grib2 2026-05-07 02:56 841K
20260506T18Z_MSC_RDPS_WindSpeed_IsbL-1015_RLatLon0.09_PT030H.grib2 2026-05-07 02:56 830K
20260506T18Z_MSC_RDPS_WindU_AGL-10m_RLatLon0.09_PT030H.grib2 2026-05-07 02:56 431K
20260506T18Z_MSC_RDPS_WindU_AGL-120m_RLatLon0.09_PT030H.grib2 2026-05-07 02:56 528K
20260506T18Z_MSC_RDPS_WindU_AGL-40m_RLatLon0.09_PT030H.grib2 2026-05-07 02:56 533K
20260506T18Z_MSC_RDPS_WindU_AGL-80m_RLatLon0.09_PT030H.grib2 2026-05-07 02:56 530K
20260506T18Z_MSC_RDPS_WindU_IsbL-0001_RLatLon0.09_PT030H.grib2 2026-05-07 02:56 244K
20260506T18Z_MSC_RDPS_WindU_IsbL-0005_RLatLon0.09_PT030H.grib2 2026-05-07 02:56 287K
20260506T18Z_MSC_RDPS_WindU_IsbL-0010_RLatLon0.09_PT030H.grib2 2026-05-07 02:56 300K
20260506T18Z_MSC_RDPS_WindU_IsbL-0020_RLatLon0.09_PT030H.grib2 2026-05-07 02:56 317K
20260506T18Z_MSC_RDPS_WindU_IsbL-0030_RLatLon0.09_PT030H.grib2 2026-05-07 02:56 353K
20260506T18Z_MSC_RDPS_WindU_IsbL-0050_RLatLon0.09_PT030H.grib2 2026-05-07 02:56 375K
20260506T18Z_MSC_RDPS_WindU_IsbL-0100_RLatLon0.09_PT030H.grib2 2026-05-07 02:56 330K
20260506T18Z_MSC_RDPS_WindU_IsbL-0150_RLatLon0.09_PT030H.grib2 2026-05-07 02:56 394K
20260506T18Z_MSC_RDPS_WindU_IsbL-0175_RLatLon0.09_PT030H.grib2 2026-05-07 02:56 417K
20260506T18Z_MSC_RDPS_WindU_IsbL-0200_RLatLon0.09_PT030H.grib2 2026-05-07 02:56 431K
20260506T18Z_MSC_RDPS_WindU_IsbL-0225_RLatLon0.09_PT030H.grib2 2026-05-07 02:56 336K
20260506T18Z_MSC_RDPS_WindU_IsbL-0250_RLatLon0.09_PT030H.grib2 2026-05-07 02:56 334K
20260506T18Z_MSC_RDPS_WindU_IsbL-0275_RLatLon0.09_PT030H.grib2 2026-05-07 02:56 346K
20260506T18Z_MSC_RDPS_WindU_IsbL-0300_RLatLon0.09_PT030H.grib2 2026-05-07 02:56 342K
20260506T18Z_MSC_RDPS_WindU_IsbL-0350_RLatLon0.09_PT030H.grib2 2026-05-07 02:56 353K
20260506T18Z_MSC_RDPS_WindU_IsbL-0400_RLatLon0.09_PT030H.grib2 2026-05-07 02:56 460K
20260506T18Z_MSC_RDPS_WindU_IsbL-0450_RLatLon0.09_PT030H.grib2 2026-05-07 02:56 462K
20260506T18Z_MSC_RDPS_WindU_IsbL-0500_RLatLon0.09_PT030H.grib2 2026-05-07 02:56 465K
20260506T18Z_MSC_RDPS_WindU_IsbL-0550_RLatLon0.09_PT030H.grib2 2026-05-07 02:56 468K
20260506T18Z_MSC_RDPS_WindU_IsbL-0600_RLatLon0.09_PT030H.grib2 2026-05-07 02:56 460K
20260506T18Z_MSC_RDPS_WindU_IsbL-0650_RLatLon0.09_PT030H.grib2 2026-05-07 02:56 479K
20260506T18Z_MSC_RDPS_WindU_IsbL-0700_RLatLon0.09_PT030H.grib2 2026-05-07 02:56 503K
20260506T18Z_MSC_RDPS_WindU_IsbL-0750_RLatLon0.09_PT030H.grib2 2026-05-07 02:56 532K
20260506T18Z_MSC_RDPS_WindU_IsbL-0800_RLatLon0.09_PT030H.grib2 2026-05-07 02:56 700K
20260506T18Z_MSC_RDPS_WindU_IsbL-0850_RLatLon0.09_PT030H.grib2 2026-05-07 02:56 752K
20260506T18Z_MSC_RDPS_WindU_IsbL-0875_RLatLon0.09_PT030H.grib2 2026-05-07 02:56 771K
20260506T18Z_MSC_RDPS_WindU_IsbL-0900_RLatLon0.09_PT030H.grib2 2026-05-07 02:56 785K
20260506T18Z_MSC_RDPS_WindU_IsbL-0925_RLatLon0.09_PT030H.grib2 2026-05-07 02:56 795K
20260506T18Z_MSC_RDPS_WindU_IsbL-0950_RLatLon0.09_PT030H.grib2 2026-05-07 02:56 652K
20260506T18Z_MSC_RDPS_WindU_IsbL-0970_RLatLon0.09_PT030H.grib2 2026-05-07 02:56 789K
20260506T18Z_MSC_RDPS_WindU_IsbL-0985_RLatLon0.09_PT030H.grib2 2026-05-07 02:56 786K
20260506T18Z_MSC_RDPS_WindU_IsbL-1000_RLatLon0.09_PT030H.grib2 2026-05-07 02:56 781K
20260506T18Z_MSC_RDPS_WindU_IsbL-1015_RLatLon0.09_PT030H.grib2 2026-05-07 02:56 821K
20260506T18Z_MSC_RDPS_WindV_AGL-10m_RLatLon0.09_PT030H.grib2 2026-05-07 02:56 425K
20260506T18Z_MSC_RDPS_WindV_AGL-120m_RLatLon0.09_PT030H.grib2 2026-05-07 02:56 524K
20260506T18Z_MSC_RDPS_WindV_AGL-40m_RLatLon0.09_PT030H.grib2 2026-05-07 02:56 527K
20260506T18Z_MSC_RDPS_WindV_AGL-80m_RLatLon0.09_PT030H.grib2 2026-05-07 02:56 526K
20260506T18Z_MSC_RDPS_WindV_IsbL-0001_RLatLon0.09_PT030H.grib2 2026-05-07 02:56 246K
20260506T18Z_MSC_RDPS_WindV_IsbL-0005_RLatLon0.09_PT030H.grib2 2026-05-07 02:56 286K
20260506T18Z_MSC_RDPS_WindV_IsbL-0010_RLatLon0.09_PT030H.grib2 2026-05-07 02:56 300K
20260506T18Z_MSC_RDPS_WindV_IsbL-0020_RLatLon0.09_PT030H.grib2 2026-05-07 02:56 318K
20260506T18Z_MSC_RDPS_WindV_IsbL-0030_RLatLon0.09_PT030H.grib2 2026-05-07 02:56 314K
20260506T18Z_MSC_RDPS_WindV_IsbL-0050_RLatLon0.09_PT030H.grib2 2026-05-07 02:56 339K
20260506T18Z_MSC_RDPS_WindV_IsbL-0100_RLatLon0.09_PT030H.grib2 2026-05-07 02:56 423K
20260506T18Z_MSC_RDPS_WindV_IsbL-0150_RLatLon0.09_PT030H.grib2 2026-05-07 02:56 391K
20260506T18Z_MSC_RDPS_WindV_IsbL-0175_RLatLon0.09_PT030H.grib2 2026-05-07 02:56 416K
20260506T18Z_MSC_RDPS_WindV_IsbL-0200_RLatLon0.09_PT030H.grib2 2026-05-07 02:56 334K
20260506T18Z_MSC_RDPS_WindV_IsbL-0225_RLatLon0.09_PT030H.grib2 2026-05-07 02:56 362K
20260506T18Z_MSC_RDPS_WindV_IsbL-0250_RLatLon0.09_PT030H.grib2 2026-05-07 02:56 360K
20260506T18Z_MSC_RDPS_WindV_IsbL-0275_RLatLon0.09_PT030H.grib2 2026-05-07 02:56 371K
20260506T18Z_MSC_RDPS_WindV_IsbL-0300_RLatLon0.09_PT030H.grib2 2026-05-07 02:56 368K
20260506T18Z_MSC_RDPS_WindV_IsbL-0350_RLatLon0.09_PT030H.grib2 2026-05-07 02:56 353K
20260506T18Z_MSC_RDPS_WindV_IsbL-0400_RLatLon0.09_PT030H.grib2 2026-05-07 02:56 358K
20260506T18Z_MSC_RDPS_WindV_IsbL-0450_RLatLon0.09_PT030H.grib2 2026-05-07 02:56 460K
20260506T18Z_MSC_RDPS_WindV_IsbL-0500_RLatLon0.09_PT030H.grib2 2026-05-07 02:56 464K
20260506T18Z_MSC_RDPS_WindV_IsbL-0550_RLatLon0.09_PT030H.grib2 2026-05-07 02:56 466K
20260506T18Z_MSC_RDPS_WindV_IsbL-0600_RLatLon0.09_PT030H.grib2 2026-05-07 02:56 475K
20260506T18Z_MSC_RDPS_WindV_IsbL-0650_RLatLon0.09_PT030H.grib2 2026-05-07 02:56 492K
20260506T18Z_MSC_RDPS_WindV_IsbL-0700_RLatLon0.09_PT030H.grib2 2026-05-07 02:56 514K
20260506T18Z_MSC_RDPS_WindV_IsbL-0750_RLatLon0.09_PT030H.grib2 2026-05-07 02:56 539K
20260506T18Z_MSC_RDPS_WindV_IsbL-0800_RLatLon0.09_PT030H.grib2 2026-05-07 02:56 564K
20260506T18Z_MSC_RDPS_WindV_IsbL-0850_RLatLon0.09_PT030H.grib2 2026-05-07 02:56 613K
20260506T18Z_MSC_RDPS_WindV_IsbL-0875_RLatLon0.09_PT030H.grib2 2026-05-07 02:56 631K
20260506T18Z_MSC_RDPS_WindV_IsbL-0900_RLatLon0.09_PT030H.grib2 2026-05-07 02:56 643K
20260506T18Z_MSC_RDPS_WindV_IsbL-0925_RLatLon0.09_PT030H.grib2 2026-05-07 02:56 654K
20260506T18Z_MSC_RDPS_WindV_IsbL-0950_RLatLon0.09_PT030H.grib2 2026-05-07 02:56 652K
20260506T18Z_MSC_RDPS_WindV_IsbL-0970_RLatLon0.09_PT030H.grib2 2026-05-07 02:56 788K
20260506T18Z_MSC_RDPS_WindV_IsbL-0985_RLatLon0.09_PT030H.grib2 2026-05-07 02:56 782K
20260506T18Z_MSC_RDPS_WindV_IsbL-1000_RLatLon0.09_PT030H.grib2 2026-05-07 02:56 820K
20260506T18Z_MSC_RDPS_WindV_IsbL-1015_RLatLon0.09_PT030H.grib2 2026-05-07 02:56 813K
20260507T18Z_MSC_RDPS_AbsoluteVorticity_IsbL-0250_RLatLon0.09_PT030H.grib2 2026-05-07 20:52 604K
20260507T18Z_MSC_RDPS_AbsoluteVorticity_IsbL-0500_RLatLon0.09_PT030H.grib2 2026-05-07 20:52 564K
20260507T18Z_MSC_RDPS_AbsoluteVorticity_IsbL-0700_RLatLon0.09_PT030H.grib2 2026-05-07 20:52 634K
20260507T18Z_MSC_RDPS_AbsoluteVorticity_IsbL-0850_RLatLon0.09_PT030H.grib2 2026-05-07 20:52 790K
20260507T18Z_MSC_RDPS_AirTemp_AGL-120m_RLatLon0.09_PT030H.grib2 2026-05-07 20:52 374K
20260507T18Z_MSC_RDPS_AirTemp_AGL-2m_RLatLon0.09_PT030H.grib2 2026-05-07 20:52 629K
20260507T18Z_MSC_RDPS_AirTemp_AGL-40m_RLatLon0.09_PT030H.grib2 2026-05-07 20:52 385K
20260507T18Z_MSC_RDPS_AirTemp_AGL-80m_RLatLon0.09_PT030H.grib2 2026-05-07 20:52 378K
20260507T18Z_MSC_RDPS_AirTemp_IsbL-0001_RLatLon0.09_PT030H.grib2 2026-05-07 20:52 302K
20260507T18Z_MSC_RDPS_AirTemp_IsbL-0005_RLatLon0.09_PT030H.grib2 2026-05-07 20:52 374K
20260507T18Z_MSC_RDPS_AirTemp_IsbL-0010_RLatLon0.09_PT030H.grib2 2026-05-07 20:52 389K
20260507T18Z_MSC_RDPS_AirTemp_IsbL-0020_RLatLon0.09_PT030H.grib2 2026-05-07 20:52 315K
20260507T18Z_MSC_RDPS_AirTemp_IsbL-0030_RLatLon0.09_PT030H.grib2 2026-05-07 20:52 339K
20260507T18Z_MSC_RDPS_AirTemp_IsbL-0050_RLatLon0.09_PT030H.grib2 2026-05-07 20:52 312K
20260507T18Z_MSC_RDPS_AirTemp_IsbL-0100_RLatLon0.09_PT030H.grib2 2026-05-07 20:52 387K
20260507T18Z_MSC_RDPS_AirTemp_IsbL-0150_RLatLon0.09_PT030H.grib2 2026-05-07 20:52 412K
20260507T18Z_MSC_RDPS_AirTemp_IsbL-0175_RLatLon0.09_PT030H.grib2 2026-05-07 20:52 405K
20260507T18Z_MSC_RDPS_AirTemp_IsbL-0200_RLatLon0.09_PT030H.grib2 2026-05-07 20:52 411K
20260507T18Z_MSC_RDPS_AirTemp_IsbL-0225_RLatLon0.09_PT030H.grib2 2026-05-07 20:52 412K
20260507T18Z_MSC_RDPS_AirTemp_IsbL-0250_RLatLon0.09_PT030H.grib2 2026-05-07 20:52 419K
20260507T18Z_MSC_RDPS_AirTemp_IsbL-0275_RLatLon0.09_PT030H.grib2 2026-05-07 20:52 399K
20260507T18Z_MSC_RDPS_AirTemp_IsbL-0300_RLatLon0.09_PT030H.grib2 2026-05-07 20:52 430K
20260507T18Z_MSC_RDPS_AirTemp_IsbL-0350_RLatLon0.09_PT030H.grib2 2026-05-07 20:52 418K
20260507T18Z_MSC_RDPS_AirTemp_IsbL-0400_RLatLon0.09_PT030H.grib2 2026-05-07 20:52 422K
20260507T18Z_MSC_RDPS_AirTemp_IsbL-0450_RLatLon0.09_PT030H.grib2 2026-05-07 20:52 431K
20260507T18Z_MSC_RDPS_AirTemp_IsbL-0500_RLatLon0.09_PT030H.grib2 2026-05-07 20:52 411K
20260507T18Z_MSC_RDPS_AirTemp_IsbL-0550_RLatLon0.09_PT030H.grib2 2026-05-07 20:52 430K
20260507T18Z_MSC_RDPS_AirTemp_IsbL-0600_RLatLon0.09_PT030H.grib2 2026-05-07 20:52 448K
20260507T18Z_MSC_RDPS_AirTemp_IsbL-0650_RLatLon0.09_PT030H.grib2 2026-05-07 20:52 464K
20260507T18Z_MSC_RDPS_AirTemp_IsbL-0700_RLatLon0.09_PT030H.grib2 2026-05-07 20:52 490K
20260507T18Z_MSC_RDPS_AirTemp_IsbL-0750_RLatLon0.09_PT030H.grib2 2026-05-07 20:52 530K
20260507T18Z_MSC_RDPS_AirTemp_IsbL-0800_RLatLon0.09_PT030H.grib2 2026-05-07 20:52 457K
20260507T18Z_MSC_RDPS_AirTemp_IsbL-0850_RLatLon0.09_PT030H.grib2 2026-05-07 20:52 498K
20260507T18Z_MSC_RDPS_AirTemp_IsbL-0875_RLatLon0.09_PT030H.grib2 2026-05-07 20:52 514K
20260507T18Z_MSC_RDPS_AirTemp_IsbL-0900_RLatLon0.09_PT030H.grib2 2026-05-07 20:52 521K
20260507T18Z_MSC_RDPS_AirTemp_IsbL-0925_RLatLon0.09_PT030H.grib2 2026-05-07 20:52 522K
20260507T18Z_MSC_RDPS_AirTemp_IsbL-0950_RLatLon0.09_PT030H.grib2 2026-05-07 20:52 525K
20260507T18Z_MSC_RDPS_AirTemp_IsbL-0970_RLatLon0.09_PT030H.grib2 2026-05-07 20:52 520K
20260507T18Z_MSC_RDPS_AirTemp_IsbL-0985_RLatLon0.09_PT030H.grib2 2026-05-07 20:52 507K
20260507T18Z_MSC_RDPS_AirTemp_IsbL-1000_RLatLon0.09_PT030H.grib2 2026-05-07 20:52 499K
20260507T18Z_MSC_RDPS_AirTemp_IsbL-1015_RLatLon0.09_PT030H.grib2 2026-05-07 20:52 496K
20260507T18Z_MSC_RDPS_Albedo_Sfc_RLatLon0.09_PT030H.grib2 2026-05-07 20:52 155K
20260507T18Z_MSC_RDPS_CAPE_Sfc_RLatLon0.09_PT030H.grib2 2026-05-07 20:52 1.7M
20260507T18Z_MSC_RDPS_CIN_Sfc_RLatLon0.09_PT030H.grib2 2026-05-07 20:52 1.3M
20260507T18Z_MSC_RDPS_CloudWater_EAtm_RLatLon0.09_PT030H.grib2 2026-05-07 20:52 229K
20260507T18Z_MSC_RDPS_ConvectivePrecip-Accum_Sfc_RLatLon0.09_PT030H.grib2 2026-05-07 20:52 933K
20260507T18Z_MSC_RDPS_DewPointDepression_AGL-2m_RLatLon0.09_PT030H.grib2 2026-05-07 20:52 417K
20260507T18Z_MSC_RDPS_DewPointDepression_IsbL-0001_RLatLon0.09_PT030H.grib2 2026-05-07 20:52 193
20260507T18Z_MSC_RDPS_DewPointDepression_IsbL-0005_RLatLon0.09_PT030H.grib2 2026-05-07 20:52 193
20260507T18Z_MSC_RDPS_DewPointDepression_IsbL-0010_RLatLon0.09_PT030H.grib2 2026-05-07 20:52 193
20260507T18Z_MSC_RDPS_DewPointDepression_IsbL-0020_RLatLon0.09_PT030H.grib2 2026-05-07 20:52 193
20260507T18Z_MSC_RDPS_DewPointDepression_IsbL-0030_RLatLon0.09_PT030H.grib2 2026-05-07 20:52 193
20260507T18Z_MSC_RDPS_DewPointDepression_IsbL-0050_RLatLon0.09_PT030H.grib2 2026-05-07 20:52 83K
20260507T18Z_MSC_RDPS_DewPointDepression_IsbL-0100_RLatLon0.09_PT030H.grib2 2026-05-07 20:52 111K
20260507T18Z_MSC_RDPS_DewPointDepression_IsbL-0150_RLatLon0.09_PT030H.grib2 2026-05-07 20:52 145K
20260507T18Z_MSC_RDPS_DewPointDepression_IsbL-0175_RLatLon0.09_PT030H.grib2 2026-05-07 20:52 173K
20260507T18Z_MSC_RDPS_DewPointDepression_IsbL-0200_RLatLon0.09_PT030H.grib2 2026-05-07 20:52 221K
20260507T18Z_MSC_RDPS_DewPointDepression_IsbL-0225_RLatLon0.09_PT030H.grib2 2026-05-07 20:52 256K
20260507T18Z_MSC_RDPS_DewPointDepression_IsbL-0250_RLatLon0.09_PT030H.grib2 2026-05-07 20:52 301K
20260507T18Z_MSC_RDPS_DewPointDepression_IsbL-0275_RLatLon0.09_PT030H.grib2 2026-05-07 20:52 310K
20260507T18Z_MSC_RDPS_DewPointDepression_IsbL-0300_RLatLon0.09_PT030H.grib2 2026-05-07 20:52 322K
20260507T18Z_MSC_RDPS_DewPointDepression_IsbL-0350_RLatLon0.09_PT030H.grib2 2026-05-07 20:52 325K
20260507T18Z_MSC_RDPS_DewPointDepression_IsbL-0400_RLatLon0.09_PT030H.grib2 2026-05-07 20:52 330K
20260507T18Z_MSC_RDPS_DewPointDepression_IsbL-0450_RLatLon0.09_PT030H.grib2 2026-05-07 20:52 334K
20260507T18Z_MSC_RDPS_DewPointDepression_IsbL-0500_RLatLon0.09_PT030H.grib2 2026-05-07 20:52 342K
20260507T18Z_MSC_RDPS_DewPointDepression_IsbL-0550_RLatLon0.09_PT030H.grib2 2026-05-07 20:52 359K
20260507T18Z_MSC_RDPS_DewPointDepression_IsbL-0600_RLatLon0.09_PT030H.grib2 2026-05-07 20:52 377K
20260507T18Z_MSC_RDPS_DewPointDepression_IsbL-0650_RLatLon0.09_PT030H.grib2 2026-05-07 20:52 387K
20260507T18Z_MSC_RDPS_DewPointDepression_IsbL-0700_RLatLon0.09_PT030H.grib2 2026-05-07 20:52 401K
20260507T18Z_MSC_RDPS_DewPointDepression_IsbL-0750_RLatLon0.09_PT030H.grib2 2026-05-07 20:52 424K
20260507T18Z_MSC_RDPS_DewPointDepression_IsbL-0800_RLatLon0.09_PT030H.grib2 2026-05-07 20:52 461K
20260507T18Z_MSC_RDPS_DewPointDepression_IsbL-0850_RLatLon0.09_PT030H.grib2 2026-05-07 20:52 481K
20260507T18Z_MSC_RDPS_DewPointDepression_IsbL-0875_RLatLon0.09_PT030H.grib2 2026-05-07 20:52 478K
20260507T18Z_MSC_RDPS_DewPointDepression_IsbL-0900_RLatLon0.09_PT030H.grib2 2026-05-07 20:52 468K
20260507T18Z_MSC_RDPS_DewPointDepression_IsbL-0925_RLatLon0.09_PT030H.grib2 2026-05-07 20:52 455K
20260507T18Z_MSC_RDPS_DewPointDepression_IsbL-0950_RLatLon0.09_PT030H.grib2 2026-05-07 20:52 444K
20260507T18Z_MSC_RDPS_DewPointDepression_IsbL-0970_RLatLon0.09_PT030H.grib2 2026-05-07 20:52 436K
20260507T18Z_MSC_RDPS_DewPointDepression_IsbL-0985_RLatLon0.09_PT030H.grib2 2026-05-07 20:52 429K
20260507T18Z_MSC_RDPS_DewPointDepression_IsbL-1000_RLatLon0.09_PT030H.grib2 2026-05-07 20:52 426K
20260507T18Z_MSC_RDPS_DewPointDepression_IsbL-1015_RLatLon0.09_PT030H.grib2 2026-05-07 20:52 415K
20260507T18Z_MSC_RDPS_DewPoint_AGL-2m_RLatLon0.09_PT030H.grib2 2026-05-07 20:52 399K
20260507T18Z_MSC_RDPS_DownwardLongwaveRadiationFlux-Accum_Sfc_RLatLon0.09_PT030H.grib2 2026-05-07 20:52 480K
20260507T18Z_MSC_RDPS_DownwardShortwaveRadiationFlux-Accum_NTAtm_RLatLon0.09_PT030H.grib2 2026-05-07 20:52 135K
20260507T18Z_MSC_RDPS_DownwardShortwaveRadiationFlux-Accum_Sfc_RLatLon0.09_PT030H.grib2 2026-05-07 20:52 560K
20260507T18Z_MSC_RDPS_FreezingRain-Accum12h_Sfc_RLatLon0.09_PT030H.grib2 2026-05-07 20:52 86K
20260507T18Z_MSC_RDPS_FreezingRain-Accum1h_Sfc_RLatLon0.09_PT030H.grib2 2026-05-07 20:52 32K
20260507T18Z_MSC_RDPS_FreezingRain-Accum24h_Sfc_RLatLon0.09_PT030H.grib2 2026-05-07 20:52 132K
20260507T18Z_MSC_RDPS_FreezingRain-Accum3h_Sfc_RLatLon0.09_PT030H.grib2 2026-05-07 20:52 37K
20260507T18Z_MSC_RDPS_FreezingRain-Accum6h_Sfc_RLatLon0.09_PT030H.grib2 2026-05-07 20:52 53K
20260507T18Z_MSC_RDPS_FreezingRain-Accum_Sfc_RLatLon0.09_PT030H.grib2 2026-05-07 20:52 153K
20260507T18Z_MSC_RDPS_GeopotentialHeight_IsbL-0001_RLatLon0.09_PT030H.grib2 2026-05-07 20:52 312K
20260507T18Z_MSC_RDPS_GeopotentialHeight_IsbL-0005_RLatLon0.09_PT030H.grib2 2026-05-07 20:52 303K
20260507T18Z_MSC_RDPS_GeopotentialHeight_IsbL-0010_RLatLon0.09_PT030H.grib2 2026-05-07 20:52 305K
20260507T18Z_MSC_RDPS_GeopotentialHeight_IsbL-0020_RLatLon0.09_PT030H.grib2 2026-05-07 20:52 304K
20260507T18Z_MSC_RDPS_GeopotentialHeight_IsbL-0030_RLatLon0.09_PT030H.grib2 2026-05-07 20:52 306K
20260507T18Z_MSC_RDPS_GeopotentialHeight_IsbL-0050_RLatLon0.09_PT030H.grib2 2026-05-07 20:52 309K
20260507T18Z_MSC_RDPS_GeopotentialHeight_IsbL-0100_RLatLon0.09_PT030H.grib2 2026-05-07 20:52 286K
20260507T18Z_MSC_RDPS_GeopotentialHeight_IsbL-0150_RLatLon0.09_PT030H.grib2 2026-05-07 20:52 226K
20260507T18Z_MSC_RDPS_GeopotentialHeight_IsbL-0175_RLatLon0.09_PT030H.grib2 2026-05-07 20:52 229K
20260507T18Z_MSC_RDPS_GeopotentialHeight_IsbL-0200_RLatLon0.09_PT030H.grib2 2026-05-07 20:52 263K
20260507T18Z_MSC_RDPS_GeopotentialHeight_IsbL-0225_RLatLon0.09_PT030H.grib2 2026-05-07 20:52 265K
20260507T18Z_MSC_RDPS_GeopotentialHeight_IsbL-0250_RLatLon0.09_PT030H.grib2 2026-05-07 20:52 266K
20260507T18Z_MSC_RDPS_GeopotentialHeight_IsbL-0275_RLatLon0.09_PT030H.grib2 2026-05-07 20:52 264K
20260507T18Z_MSC_RDPS_GeopotentialHeight_IsbL-0300_RLatLon0.09_PT030H.grib2 2026-05-07 20:52 264K
20260507T18Z_MSC_RDPS_GeopotentialHeight_IsbL-0350_RLatLon0.09_PT030H.grib2 2026-05-07 20:52 230K
20260507T18Z_MSC_RDPS_GeopotentialHeight_IsbL-0400_RLatLon0.09_PT030H.grib2 2026-05-07 20:52 226K
20260507T18Z_MSC_RDPS_GeopotentialHeight_IsbL-0450_RLatLon0.09_PT030H.grib2 2026-05-07 20:52 294K
20260507T18Z_MSC_RDPS_GeopotentialHeight_IsbL-0500_RLatLon0.09_PT030H.grib2 2026-05-07 20:52 289K
20260507T18Z_MSC_RDPS_GeopotentialHeight_IsbL-0550_RLatLon0.09_PT030H.grib2 2026-05-07 20:52 287K
20260507T18Z_MSC_RDPS_GeopotentialHeight_IsbL-0600_RLatLon0.09_PT030H.grib2 2026-05-07 20:52 284K
20260507T18Z_MSC_RDPS_GeopotentialHeight_IsbL-0650_RLatLon0.09_PT030H.grib2 2026-05-07 20:52 256K
20260507T18Z_MSC_RDPS_GeopotentialHeight_IsbL-0700_RLatLon0.09_PT030H.grib2 2026-05-07 20:52 255K
20260507T18Z_MSC_RDPS_GeopotentialHeight_IsbL-0750_RLatLon0.09_PT030H.grib2 2026-05-07 20:52 340K
20260507T18Z_MSC_RDPS_GeopotentialHeight_IsbL-0800_RLatLon0.09_PT030H.grib2 2026-05-07 20:52 346K
20260507T18Z_MSC_RDPS_GeopotentialHeight_IsbL-0850_RLatLon0.09_PT030H.grib2 2026-05-07 20:52 353K
20260507T18Z_MSC_RDPS_GeopotentialHeight_IsbL-0875_RLatLon0.09_PT030H.grib2 2026-05-07 20:52 355K
20260507T18Z_MSC_RDPS_GeopotentialHeight_IsbL-0900_RLatLon0.09_PT030H.grib2 2026-05-07 20:52 359K
20260507T18Z_MSC_RDPS_GeopotentialHeight_IsbL-0925_RLatLon0.09_PT030H.grib2 2026-05-07 20:52 360K
20260507T18Z_MSC_RDPS_GeopotentialHeight_IsbL-0950_RLatLon0.09_PT030H.grib2 2026-05-07 20:52 366K
20260507T18Z_MSC_RDPS_GeopotentialHeight_IsbL-0970_RLatLon0.09_PT030H.grib2 2026-05-07 20:52 370K
20260507T18Z_MSC_RDPS_GeopotentialHeight_IsbL-0985_RLatLon0.09_PT030H.grib2 2026-05-07 20:52 379K
20260507T18Z_MSC_RDPS_GeopotentialHeight_IsbL-1000_RLatLon0.09_PT030H.grib2 2026-05-07 20:52 391K
20260507T18Z_MSC_RDPS_GeopotentialHeight_IsbL-1015_RLatLon0.09_PT030H.grib2 2026-05-07 20:52 406K
20260507T18Z_MSC_RDPS_HighLowPressure_MSL_RLatLon0.09_PT030H.json 2026-05-07 20:43 22K
20260507T18Z_MSC_RDPS_Humidex_Sfc_RLatLon0.09_PT030H.grib2 2026-05-07 20:52 2.4M
20260507T18Z_MSC_RDPS_IcePellets-Accum12h_Sfc_RLatLon0.09_PT030H.grib2 2026-05-07 20:52 15K
20260507T18Z_MSC_RDPS_IcePellets-Accum1h_Sfc_RLatLon0.09_PT030H.grib2 2026-05-07 20:52 7.3K
20260507T18Z_MSC_RDPS_IcePellets-Accum24h_Sfc_RLatLon0.09_PT030H.grib2 2026-05-07 20:52 17K
20260507T18Z_MSC_RDPS_IcePellets-Accum3h_Sfc_RLatLon0.09_PT030H.grib2 2026-05-07 20:52 9.3K
20260507T18Z_MSC_RDPS_IcePellets-Accum6h_Sfc_RLatLon0.09_PT030H.grib2 2026-05-07 20:52 12K
20260507T18Z_MSC_RDPS_IcePellets-Accum_Sfc_RLatLon0.09_PT030H.grib2 2026-05-07 20:52 19K
20260507T18Z_MSC_RDPS_KIndex_Sfc_RLatLon0.09_PT030H.grib2 2026-05-07 20:52 2.5M
20260507T18Z_MSC_RDPS_LatentHeatNetFlux_Sfc_RLatLon0.09_PT030H.grib2 2026-05-07 20:52 367K
20260507T18Z_MSC_RDPS_LiftedIndex-MU-VT_IsbL-0500_RLatLon0.09_PT030H.grib2 2026-05-07 20:52 2.4M
20260507T18Z_MSC_RDPS_NetLongwaveRadiationFlux-Accum_Sfc_RLatLon0.09_PT030H.grib2 2026-05-07 20:52 487K
20260507T18Z_MSC_RDPS_NetShortwaveRadiationFlux-Accum_Sfc_RLatLon0.09_PT030H.grib2 2026-05-07 20:52 557K
20260507T18Z_MSC_RDPS_PlanetaryBoundaryLayerHeight_Sfc_RLatLon0.09_PT030H.grib2 2026-05-07 20:52 1.0M
20260507T18Z_MSC_RDPS_Precip-Accum12h_Sfc_RLatLon0.09_PT030H.grib2 2026-05-07 20:52 1.7M
20260507T18Z_MSC_RDPS_Precip-Accum1h_Sfc_RLatLon0.09_PT030H.grib2 2026-05-07 20:52 1.2M
20260507T18Z_MSC_RDPS_Precip-Accum24h_Sfc_RLatLon0.09_PT030H.grib2 2026-05-07 20:52 1.8M
20260507T18Z_MSC_RDPS_Precip-Accum3h_Sfc_RLatLon0.09_PT030H.grib2 2026-05-07 20:52 1.3M
20260507T18Z_MSC_RDPS_Precip-Accum6h_Sfc_RLatLon0.09_PT030H.grib2 2026-05-07 20:52 1.5M
20260507T18Z_MSC_RDPS_Precip-Accum_Sfc_RLatLon0.09_PT030H.grib2 2026-05-07 20:52 1.9M
20260507T18Z_MSC_RDPS_PrecipRate_Sfc_RLatLon0.09_PT030H.grib2 2026-05-07 20:52 164K
20260507T18Z_MSC_RDPS_PrecipType-Instant_Sfc_RLatLon0.09_PT030H.grib2 2026-05-07 20:52 590K
20260507T18Z_MSC_RDPS_Pressure-Trend3h_Sfc_RLatLon0.09_PT030H.grib2 2026-05-07 20:52 1.2M
20260507T18Z_MSC_RDPS_Pressure_MSL_RLatLon0.09_PT030H.grib2 2026-05-07 20:52 326K
20260507T18Z_MSC_RDPS_Pressure_PVU-1.5_RLatLon0.09_PT030H.grib2 2026-05-07 20:52 2.5M
20260507T18Z_MSC_RDPS_Pressure_PVU-1_RLatLon0.09_PT030H.grib2 2026-05-07 20:52 2.4M
20260507T18Z_MSC_RDPS_Pressure_PVU-2_RLatLon0.09_PT030H.grib2 2026-05-07 20:52 2.4M
20260507T18Z_MSC_RDPS_Pressure_Sfc_RLatLon0.09_PT030H.grib2 2026-05-07 20:52 498K
20260507T18Z_MSC_RDPS_RadiativeTemp_Sfc_RLatLon0.09_PT030H.grib2 2026-05-07 20:52 317K
20260507T18Z_MSC_RDPS_Rain-Accum12h_Sfc_RLatLon0.09_PT030H.grib2 2026-05-07 20:52 1.2M
20260507T18Z_MSC_RDPS_Rain-Accum1h_Sfc_RLatLon0.09_PT030H.grib2 2026-05-07 20:52 561K
20260507T18Z_MSC_RDPS_Rain-Accum24h_Sfc_RLatLon0.09_PT030H.grib2 2026-05-07 20:52 1.4M
20260507T18Z_MSC_RDPS_Rain-Accum3h_Sfc_RLatLon0.09_PT030H.grib2 2026-05-07 20:52 649K
20260507T18Z_MSC_RDPS_Rain-Accum6h_Sfc_RLatLon0.09_PT030H.grib2 2026-05-07 20:52 1.0M
20260507T18Z_MSC_RDPS_Rain-Accum_Sfc_RLatLon0.09_PT030H.grib2 2026-05-07 20:52 1.5M
20260507T18Z_MSC_RDPS_RelativeHumidity_AGL-2m_RLatLon0.09_PT030H.grib2 2026-05-07 20:52 1.0M
20260507T18Z_MSC_RDPS_RelativeHumidity_IsbL-0010_RLatLon0.09_PT030H.grib2 2026-05-07 20:52 694K
20260507T18Z_MSC_RDPS_RelativeHumidity_IsbL-0020_RLatLon0.09_PT030H.grib2 2026-05-07 20:52 644K
20260507T18Z_MSC_RDPS_RelativeHumidity_IsbL-0030_RLatLon0.09_PT030H.grib2 2026-05-07 20:52 633K
20260507T18Z_MSC_RDPS_RelativeHumidity_IsbL-0050_RLatLon0.09_PT030H.grib2 2026-05-07 20:52 362K
20260507T18Z_MSC_RDPS_RelativeHumidity_IsbL-0100_RLatLon0.09_PT030H.grib2 2026-05-07 20:52 278K
20260507T18Z_MSC_RDPS_RelativeHumidity_IsbL-0150_RLatLon0.09_PT030H.grib2 2026-05-07 20:52 413K
20260507T18Z_MSC_RDPS_RelativeHumidity_IsbL-0175_RLatLon0.09_PT030H.grib2 2026-05-07 20:52 471K
20260507T18Z_MSC_RDPS_RelativeHumidity_IsbL-0200_RLatLon0.09_PT030H.grib2 2026-05-07 20:52 546K
20260507T18Z_MSC_RDPS_RelativeHumidity_IsbL-0225_RLatLon0.09_PT030H.grib2 2026-05-07 20:52 611K
20260507T18Z_MSC_RDPS_RelativeHumidity_IsbL-0250_RLatLon0.09_PT030H.grib2 2026-05-07 20:52 679K
20260507T18Z_MSC_RDPS_RelativeHumidity_IsbL-0275_RLatLon0.09_PT030H.grib2 2026-05-07 20:52 710K
20260507T18Z_MSC_RDPS_RelativeHumidity_IsbL-0300_RLatLon0.09_PT030H.grib2 2026-05-07 20:52 748K
20260507T18Z_MSC_RDPS_RelativeHumidity_IsbL-0350_RLatLon0.09_PT030H.grib2 2026-05-07 20:52 763K
20260507T18Z_MSC_RDPS_RelativeHumidity_IsbL-0400_RLatLon0.09_PT030H.grib2 2026-05-07 20:52 777K
20260507T18Z_MSC_RDPS_RelativeHumidity_IsbL-0450_RLatLon0.09_PT030H.grib2 2026-05-07 20:52 785K
20260507T18Z_MSC_RDPS_RelativeHumidity_IsbL-0500_RLatLon0.09_PT030H.grib2 2026-05-07 20:52 794K
20260507T18Z_MSC_RDPS_RelativeHumidity_IsbL-0550_RLatLon0.09_PT030H.grib2 2026-05-07 20:52 816K
20260507T18Z_MSC_RDPS_RelativeHumidity_IsbL-0600_RLatLon0.09_PT030H.grib2 2026-05-07 20:52 843K
20260507T18Z_MSC_RDPS_RelativeHumidity_IsbL-0650_RLatLon0.09_PT030H.grib2 2026-05-07 20:52 862K
20260507T18Z_MSC_RDPS_RelativeHumidity_IsbL-0700_RLatLon0.09_PT030H.grib2 2026-05-07 20:52 903K
20260507T18Z_MSC_RDPS_RelativeHumidity_IsbL-0750_RLatLon0.09_PT030H.grib2 2026-05-07 20:52 949K
20260507T18Z_MSC_RDPS_RelativeHumidity_IsbL-0800_RLatLon0.09_PT030H.grib2 2026-05-07 20:52 1.0M
20260507T18Z_MSC_RDPS_RelativeHumidity_IsbL-0850_RLatLon0.09_PT030H.grib2 2026-05-07 20:52 1.0M
20260507T18Z_MSC_RDPS_RelativeHumidity_IsbL-0875_RLatLon0.09_PT030H.grib2 2026-05-07 20:52 1.1M
20260507T18Z_MSC_RDPS_RelativeHumidity_IsbL-0900_RLatLon0.09_PT030H.grib2 2026-05-07 20:52 1.1M
20260507T18Z_MSC_RDPS_RelativeHumidity_IsbL-0925_RLatLon0.09_PT030H.grib2 2026-05-07 20:52 1.1M
20260507T18Z_MSC_RDPS_RelativeHumidity_IsbL-0950_RLatLon0.09_PT030H.grib2 2026-05-07 20:52 1.1M
20260507T18Z_MSC_RDPS_RelativeHumidity_IsbL-0970_RLatLon0.09_PT030H.grib2 2026-05-07 20:52 1.0M
20260507T18Z_MSC_RDPS_RelativeHumidity_IsbL-0985_RLatLon0.09_PT030H.grib2 2026-05-07 20:52 1.0M
20260507T18Z_MSC_RDPS_RelativeHumidity_IsbL-1000_RLatLon0.09_PT030H.grib2 2026-05-07 20:52 1.0M
20260507T18Z_MSC_RDPS_RelativeHumidity_IsbL-1015_RLatLon0.09_PT030H.grib2 2026-05-07 20:52 1.0M
20260507T18Z_MSC_RDPS_Runoff-Accum_Sfc_RLatLon0.09_PT030H.grib2 2026-05-07 20:52 57K
20260507T18Z_MSC_RDPS_SWEATIndex_Sfc_RLatLon0.09_PT030H.grib2 2026-05-07 20:52 2.4M
20260507T18Z_MSC_RDPS_SeeingIndex_EAtm_RLatLon0.09_PT030H.grib2 2026-05-07 20:52 1.0M
20260507T18Z_MSC_RDPS_SensibleHeatNetFlux_Sfc_RLatLon0.09_PT030H.grib2 2026-05-07 20:52 321K
20260507T18Z_MSC_RDPS_ShowalterIndex_IsbL-0500_RLatLon0.09_PT030H.grib2 2026-05-07 20:52 2.6M
20260507T18Z_MSC_RDPS_SkyTransparencyIndex_EAtm_RLatLon0.09_PT030H.grib2 2026-05-07 20:52 701K
20260507T18Z_MSC_RDPS_Snow-Accum12h_Sfc_RLatLon0.09_PT030H.grib2 2026-05-07 20:52 579K
20260507T18Z_MSC_RDPS_Snow-Accum1h_Sfc_RLatLon0.09_PT030H.grib2 2026-05-07 20:52 420K
20260507T18Z_MSC_RDPS_Snow-Accum24h_Sfc_RLatLon0.09_PT030H.grib2 2026-05-07 20:52 611K
20260507T18Z_MSC_RDPS_Snow-Accum3h_Sfc_RLatLon0.09_PT030H.grib2 2026-05-07 20:52 422K
20260507T18Z_MSC_RDPS_Snow-Accum6h_Sfc_RLatLon0.09_PT030H.grib2 2026-05-07 20:52 556K
20260507T18Z_MSC_RDPS_Snow-Accum_Sfc_RLatLon0.09_PT030H.grib2 2026-05-07 20:52 675K
20260507T18Z_MSC_RDPS_SnowDensity_Sfc_RLatLon0.09_PT030H.grib2 2026-05-07 20:52 170K
20260507T18Z_MSC_RDPS_SnowDepth_Sfc_RLatLon0.09_PT030H.grib2 2026-05-07 20:52 626K
20260507T18Z_MSC_RDPS_SoilTemp_DBS-0to10cm_RLatLon0.09_PT030H.grib2 2026-05-07 20:52 235K
20260507T18Z_MSC_RDPS_SoilTemp_Sfc_RLatLon0.09_PT030H.grib2 2026-05-07 20:52 285K
20260507T18Z_MSC_RDPS_SoilVolumetricIceContent_Sfc_RLatLon0.09_PT030H.grib2 2026-05-07 20:52 146K
20260507T18Z_MSC_RDPS_SoilVolumetricWaterContent_DBS-0to10cm_RLatLon0.09_PT030H.grib2 2026-05-07 20:52 286K
20260507T18Z_MSC_RDPS_SoilVolumetricWaterContent_DBS-0to1cm_RLatLon0.09_PT030H.grib2 2026-05-07 20:52 338K
20260507T18Z_MSC_RDPS_SpecificHumidity_AGL-120m_RLatLon0.09_PT030H.grib2 2026-05-07 20:52 499K
20260507T18Z_MSC_RDPS_SpecificHumidity_AGL-2m_RLatLon0.09_PT030H.grib2 2026-05-07 20:52 676K
20260507T18Z_MSC_RDPS_SpecificHumidity_AGL-40m_RLatLon0.09_PT030H.grib2 2026-05-07 20:52 507K
20260507T18Z_MSC_RDPS_SpecificHumidity_AGL-80m_RLatLon0.09_PT030H.grib2 2026-05-07 20:52 502K
20260507T18Z_MSC_RDPS_SpecificHumidity_IsbL-0001_RLatLon0.09_PT030H.grib2 2026-05-07 20:52 366K
20260507T18Z_MSC_RDPS_SpecificHumidity_IsbL-0005_RLatLon0.09_PT030H.grib2 2026-05-07 20:52 376K
20260507T18Z_MSC_RDPS_SpecificHumidity_IsbL-0010_RLatLon0.09_PT030H.grib2 2026-05-07 20:52 407K
20260507T18Z_MSC_RDPS_SpecificHumidity_IsbL-0020_RLatLon0.09_PT030H.grib2 2026-05-07 20:52 383K
20260507T18Z_MSC_RDPS_SpecificHumidity_IsbL-0030_RLatLon0.09_PT030H.grib2 2026-05-07 20:52 375K
20260507T18Z_MSC_RDPS_SpecificHumidity_IsbL-0050_RLatLon0.09_PT030H.grib2 2026-05-07 20:52 374K
20260507T18Z_MSC_RDPS_SpecificHumidity_IsbL-0100_RLatLon0.09_PT030H.grib2 2026-05-07 20:52 421K
20260507T18Z_MSC_RDPS_SpecificHumidity_IsbL-0150_RLatLon0.09_PT030H.grib2 2026-05-07 20:52 459K
20260507T18Z_MSC_RDPS_SpecificHumidity_IsbL-0175_RLatLon0.09_PT030H.grib2 2026-05-07 20:52 443K
20260507T18Z_MSC_RDPS_SpecificHumidity_IsbL-0200_RLatLon0.09_PT030H.grib2 2026-05-07 20:52 476K
20260507T18Z_MSC_RDPS_SpecificHumidity_IsbL-0225_RLatLon0.09_PT030H.grib2 2026-05-07 20:52 474K
20260507T18Z_MSC_RDPS_SpecificHumidity_IsbL-0250_RLatLon0.09_PT030H.grib2 2026-05-07 20:52 521K
20260507T18Z_MSC_RDPS_SpecificHumidity_IsbL-0275_RLatLon0.09_PT030H.grib2 2026-05-07 20:52 483K
20260507T18Z_MSC_RDPS_SpecificHumidity_IsbL-0300_RLatLon0.09_PT030H.grib2 2026-05-07 20:52 452K
20260507T18Z_MSC_RDPS_SpecificHumidity_IsbL-0350_RLatLon0.09_PT030H.grib2 2026-05-07 20:52 442K
20260507T18Z_MSC_RDPS_SpecificHumidity_IsbL-0400_RLatLon0.09_PT030H.grib2 2026-05-07 20:52 521K
20260507T18Z_MSC_RDPS_SpecificHumidity_IsbL-0450_RLatLon0.09_PT030H.grib2 2026-05-07 20:52 459K
20260507T18Z_MSC_RDPS_SpecificHumidity_IsbL-0500_RLatLon0.09_PT030H.grib2 2026-05-07 20:52 512K
20260507T18Z_MSC_RDPS_SpecificHumidity_IsbL-0550_RLatLon0.09_PT030H.grib2 2026-05-07 20:52 586K
20260507T18Z_MSC_RDPS_SpecificHumidity_IsbL-0600_RLatLon0.09_PT030H.grib2 2026-05-07 20:52 644K
20260507T18Z_MSC_RDPS_SpecificHumidity_IsbL-0650_RLatLon0.09_PT030H.grib2 2026-05-07 20:52 568K
20260507T18Z_MSC_RDPS_SpecificHumidity_IsbL-0700_RLatLon0.09_PT030H.grib2 2026-05-07 20:52 620K
20260507T18Z_MSC_RDPS_SpecificHumidity_IsbL-0750_RLatLon0.09_PT030H.grib2 2026-05-07 20:52 681K
20260507T18Z_MSC_RDPS_SpecificHumidity_IsbL-0800_RLatLon0.09_PT030H.grib2 2026-05-07 20:52 767K
20260507T18Z_MSC_RDPS_SpecificHumidity_IsbL-0850_RLatLon0.09_PT030H.grib2 2026-05-07 20:52 832K
20260507T18Z_MSC_RDPS_SpecificHumidity_IsbL-0875_RLatLon0.09_PT030H.grib2 2026-05-07 20:52 713K
20260507T18Z_MSC_RDPS_SpecificHumidity_IsbL-0900_RLatLon0.09_PT030H.grib2 2026-05-07 20:52 724K
20260507T18Z_MSC_RDPS_SpecificHumidity_IsbL-0925_RLatLon0.09_PT030H.grib2 2026-05-07 20:52 726K
20260507T18Z_MSC_RDPS_SpecificHumidity_IsbL-0950_RLatLon0.09_PT030H.grib2 2026-05-07 20:52 724K
20260507T18Z_MSC_RDPS_SpecificHumidity_IsbL-0970_RLatLon0.09_PT030H.grib2 2026-05-07 20:52 717K
20260507T18Z_MSC_RDPS_SpecificHumidity_IsbL-0985_RLatLon0.09_PT030H.grib2 2026-05-07 20:52 706K
20260507T18Z_MSC_RDPS_SpecificHumidity_IsbL-1000_RLatLon0.09_PT030H.grib2 2026-05-07 20:52 699K
20260507T18Z_MSC_RDPS_SpecificHumidity_IsbL-1015_RLatLon0.09_PT030H.grib2 2026-05-07 20:52 689K
20260507T18Z_MSC_RDPS_SpecificHumidity_Sfc_RLatLon0.09_PT030H.grib2 2026-05-07 20:52 345K
20260507T18Z_MSC_RDPS_StormRelativeHelicity_EtaL-10000_RLatLon0.09_PT030H.grib2 2026-05-07 20:52 1.1M
20260507T18Z_MSC_RDPS_StormSeverityIndex_EtaL-10000_RLatLon0.09_PT030H.grib2 2026-05-07 20:52 1.2M
20260507T18Z_MSC_RDPS_Thickness_IsbL-0850to0700_RLatLon0.09_PT030H.grib2 2026-05-07 20:52 176K
20260507T18Z_MSC_RDPS_Thickness_IsbL-1000to0500_RLatLon0.09_PT030H.grib2 2026-05-07 20:52 196K
20260507T18Z_MSC_RDPS_Thickness_IsbL-1000to0850_RLatLon0.09_PT030H.grib2 2026-05-07 20:52 259K
20260507T18Z_MSC_RDPS_TotalCloudCover_Sfc_RLatLon0.09_PT030H.grib2 2026-05-07 20:52 656K
20260507T18Z_MSC_RDPS_TotalTotalsIndex_Sfc_RLatLon0.09_PT030H.grib2 2026-05-07 20:52 2.4M
20260507T18Z_MSC_RDPS_UVIndex-ClearSky_Sfc_RLatLon0.09_PT030H.grib2 2026-05-07 20:52 196K
20260507T18Z_MSC_RDPS_UVIndex_Sfc_RLatLon0.09_PT030H.grib2 2026-05-07 20:52 410K
20260507T18Z_MSC_RDPS_UpwardLongwaveRadiationFlux_NTAtm_RLatLon0.09_PT030H.grib2 2026-05-07 20:52 380K
20260507T18Z_MSC_RDPS_UpwardShortwaveRadiationFlux_NTAtm_RLatLon0.09_PT030H.grib2 2026-05-07 20:52 349K
20260507T18Z_MSC_RDPS_VerticalVelocity_IsbL-0250_RLatLon0.09_PT030H.grib2 2026-05-07 20:52 575K
20260507T18Z_MSC_RDPS_VerticalVelocity_IsbL-0500_RLatLon0.09_PT030H.grib2 2026-05-07 20:52 533K
20260507T18Z_MSC_RDPS_VerticalVelocity_IsbL-0700_RLatLon0.09_PT030H.grib2 2026-05-07 20:52 602K
20260507T18Z_MSC_RDPS_VerticalVelocity_IsbL-0850_RLatLon0.09_PT030H.grib2 2026-05-07 20:52 704K
20260507T18Z_MSC_RDPS_VerticalWindShear_EtaL-6500_RLatLon0.09_PT030H.grib2 2026-05-07 20:52 1.2M
20260507T18Z_MSC_RDPS_WindChill_Sfc_RLatLon0.09_PT030H.grib2 2026-05-07 20:52 1.2M
20260507T18Z_MSC_RDPS_WindDir_AGL-10m_RLatLon0.09_PT030H.grib2 2026-05-07 20:52 954K
20260507T18Z_MSC_RDPS_WindDir_AGL-120m_RLatLon0.09_PT030H.grib2 2026-05-07 20:52 597K
20260507T18Z_MSC_RDPS_WindDir_AGL-40m_RLatLon0.09_PT030H.grib2 2026-05-07 20:52 622K
20260507T18Z_MSC_RDPS_WindDir_AGL-80m_RLatLon0.09_PT030H.grib2 2026-05-07 20:52 607K
20260507T18Z_MSC_RDPS_WindDir_IsbL-0001_RLatLon0.09_PT030H.grib2 2026-05-07 20:52 292K
20260507T18Z_MSC_RDPS_WindDir_IsbL-0005_RLatLon0.09_PT030H.grib2 2026-05-07 20:52 370K
20260507T18Z_MSC_RDPS_WindDir_IsbL-0010_RLatLon0.09_PT030H.grib2 2026-05-07 20:52 376K
20260507T18Z_MSC_RDPS_WindDir_IsbL-0020_RLatLon0.09_PT030H.grib2 2026-05-07 20:52 431K
20260507T18Z_MSC_RDPS_WindDir_IsbL-0030_RLatLon0.09_PT030H.grib2 2026-05-07 20:52 417K
20260507T18Z_MSC_RDPS_WindDir_IsbL-0050_RLatLon0.09_PT030H.grib2 2026-05-07 20:52 438K
20260507T18Z_MSC_RDPS_WindDir_IsbL-0100_RLatLon0.09_PT030H.grib2 2026-05-07 20:52 411K
20260507T18Z_MSC_RDPS_WindDir_IsbL-0150_RLatLon0.09_PT030H.grib2 2026-05-07 20:52 431K
20260507T18Z_MSC_RDPS_WindDir_IsbL-0175_RLatLon0.09_PT030H.grib2 2026-05-07 20:52 455K
20260507T18Z_MSC_RDPS_WindDir_IsbL-0200_RLatLon0.09_PT030H.grib2 2026-05-07 20:52 471K
20260507T18Z_MSC_RDPS_WindDir_IsbL-0225_RLatLon0.09_PT030H.grib2 2026-05-07 20:52 471K
20260507T18Z_MSC_RDPS_WindDir_IsbL-0250_RLatLon0.09_PT030H.grib2 2026-05-07 20:52 465K
20260507T18Z_MSC_RDPS_WindDir_IsbL-0275_RLatLon0.09_PT030H.grib2 2026-05-07 20:52 482K
20260507T18Z_MSC_RDPS_WindDir_IsbL-0300_RLatLon0.09_PT030H.grib2 2026-05-07 20:52 475K
20260507T18Z_MSC_RDPS_WindDir_IsbL-0350_RLatLon0.09_PT030H.grib2 2026-05-07 20:52 502K
20260507T18Z_MSC_RDPS_WindDir_IsbL-0400_RLatLon0.09_PT030H.grib2 2026-05-07 20:52 522K
20260507T18Z_MSC_RDPS_WindDir_IsbL-0450_RLatLon0.09_PT030H.grib2 2026-05-07 20:52 539K
20260507T18Z_MSC_RDPS_WindDir_IsbL-0500_RLatLon0.09_PT030H.grib2 2026-05-07 20:52 564K
20260507T18Z_MSC_RDPS_WindDir_IsbL-0550_RLatLon0.09_PT030H.grib2 2026-05-07 20:52 581K
20260507T18Z_MSC_RDPS_WindDir_IsbL-0600_RLatLon0.09_PT030H.grib2 2026-05-07 20:52 597K
20260507T18Z_MSC_RDPS_WindDir_IsbL-0650_RLatLon0.09_PT030H.grib2 2026-05-07 20:52 632K
20260507T18Z_MSC_RDPS_WindDir_IsbL-0700_RLatLon0.09_PT030H.grib2 2026-05-07 20:52 680K
20260507T18Z_MSC_RDPS_WindDir_IsbL-0750_RLatLon0.09_PT030H.grib2 2026-05-07 20:52 731K
20260507T18Z_MSC_RDPS_WindDir_IsbL-0800_RLatLon0.09_PT030H.grib2 2026-05-07 20:52 795K
20260507T18Z_MSC_RDPS_WindDir_IsbL-0850_RLatLon0.09_PT030H.grib2 2026-05-07 20:52 853K
20260507T18Z_MSC_RDPS_WindDir_IsbL-0875_RLatLon0.09_PT030H.grib2 2026-05-07 20:52 874K
20260507T18Z_MSC_RDPS_WindDir_IsbL-0900_RLatLon0.09_PT030H.grib2 2026-05-07 20:52 891K
20260507T18Z_MSC_RDPS_WindDir_IsbL-0925_RLatLon0.09_PT030H.grib2 2026-05-07 20:52 901K
20260507T18Z_MSC_RDPS_WindDir_IsbL-0950_RLatLon0.09_PT030H.grib2 2026-05-07 20:52 905K
20260507T18Z_MSC_RDPS_WindDir_IsbL-0970_RLatLon0.09_PT030H.grib2 2026-05-07 20:52 907K
20260507T18Z_MSC_RDPS_WindDir_IsbL-0985_RLatLon0.09_PT030H.grib2 2026-05-07 20:52 915K
20260507T18Z_MSC_RDPS_WindDir_IsbL-1000_RLatLon0.09_PT030H.grib2 2026-05-07 20:52 930K
20260507T18Z_MSC_RDPS_WindDir_IsbL-1015_RLatLon0.09_PT030H.grib2 2026-05-07 20:52 947K
20260507T18Z_MSC_RDPS_WindGust-Max_AGL-10m_RLatLon0.09_PT030H.grib2 2026-05-07 20:52 1.0M
20260507T18Z_MSC_RDPS_WindGust-Min_AGL-10m_RLatLon0.09_PT030H.grib2 2026-05-07 20:52 1.0M
20260507T18Z_MSC_RDPS_WindGust_AGL-10m_RLatLon0.09_PT030H.grib2 2026-05-07 20:52 1.0M
20260507T18Z_MSC_RDPS_WindSpeed_AGL-10m_RLatLon0.09_PT030H.grib2 2026-05-07 20:52 841K
20260507T18Z_MSC_RDPS_WindSpeed_AGL-120m_RLatLon0.09_PT030H.grib2 2026-05-07 20:52 546K
20260507T18Z_MSC_RDPS_WindSpeed_AGL-40m_RLatLon0.09_PT030H.grib2 2026-05-07 20:52 541K
20260507T18Z_MSC_RDPS_WindSpeed_AGL-80m_RLatLon0.09_PT030H.grib2 2026-05-07 20:52 537K
20260507T18Z_MSC_RDPS_WindSpeed_IsbL-0001_RLatLon0.09_PT030H.grib2 2026-05-07 20:52 248K
20260507T18Z_MSC_RDPS_WindSpeed_IsbL-0005_RLatLon0.09_PT030H.grib2 2026-05-07 20:52 293K
20260507T18Z_MSC_RDPS_WindSpeed_IsbL-0010_RLatLon0.09_PT030H.grib2 2026-05-07 20:52 398K
20260507T18Z_MSC_RDPS_WindSpeed_IsbL-0020_RLatLon0.09_PT030H.grib2 2026-05-07 20:52 323K
20260507T18Z_MSC_RDPS_WindSpeed_IsbL-0030_RLatLon0.09_PT030H.grib2 2026-05-07 20:52 322K
20260507T18Z_MSC_RDPS_WindSpeed_IsbL-0050_RLatLon0.09_PT030H.grib2 2026-05-07 20:52 451K
20260507T18Z_MSC_RDPS_WindSpeed_IsbL-0100_RLatLon0.09_PT030H.grib2 2026-05-07 20:52 434K
20260507T18Z_MSC_RDPS_WindSpeed_IsbL-0150_RLatLon0.09_PT030H.grib2 2026-05-07 20:52 376K
20260507T18Z_MSC_RDPS_WindSpeed_IsbL-0175_RLatLon0.09_PT030H.grib2 2026-05-07 20:52 423K
20260507T18Z_MSC_RDPS_WindSpeed_IsbL-0200_RLatLon0.09_PT030H.grib2 2026-05-07 20:52 441K
20260507T18Z_MSC_RDPS_WindSpeed_IsbL-0225_RLatLon0.09_PT030H.grib2 2026-05-07 20:52 448K
20260507T18Z_MSC_RDPS_WindSpeed_IsbL-0250_RLatLon0.09_PT030H.grib2 2026-05-07 20:52 450K
20260507T18Z_MSC_RDPS_WindSpeed_IsbL-0275_RLatLon0.09_PT030H.grib2 2026-05-07 20:52 465K
20260507T18Z_MSC_RDPS_WindSpeed_IsbL-0300_RLatLon0.09_PT030H.grib2 2026-05-07 20:52 462K
20260507T18Z_MSC_RDPS_WindSpeed_IsbL-0350_RLatLon0.09_PT030H.grib2 2026-05-07 20:52 473K
20260507T18Z_MSC_RDPS_WindSpeed_IsbL-0400_RLatLon0.09_PT030H.grib2 2026-05-07 20:52 475K
20260507T18Z_MSC_RDPS_WindSpeed_IsbL-0450_RLatLon0.09_PT030H.grib2 2026-05-07 20:52 459K
20260507T18Z_MSC_RDPS_WindSpeed_IsbL-0500_RLatLon0.09_PT030H.grib2 2026-05-07 20:52 462K
20260507T18Z_MSC_RDPS_WindSpeed_IsbL-0550_RLatLon0.09_PT030H.grib2 2026-05-07 20:52 585K
20260507T18Z_MSC_RDPS_WindSpeed_IsbL-0600_RLatLon0.09_PT030H.grib2 2026-05-07 20:52 640K
20260507T18Z_MSC_RDPS_WindSpeed_IsbL-0650_RLatLon0.09_PT030H.grib2 2026-05-07 20:52 662K
20260507T18Z_MSC_RDPS_WindSpeed_IsbL-0700_RLatLon0.09_PT030H.grib2 2026-05-07 20:52 690K
20260507T18Z_MSC_RDPS_WindSpeed_IsbL-0750_RLatLon0.09_PT030H.grib2 2026-05-07 20:52 722K
20260507T18Z_MSC_RDPS_WindSpeed_IsbL-0800_RLatLon0.09_PT030H.grib2 2026-05-07 20:52 769K
20260507T18Z_MSC_RDPS_WindSpeed_IsbL-0850_RLatLon0.09_PT030H.grib2 2026-05-07 20:52 819K
20260507T18Z_MSC_RDPS_WindSpeed_IsbL-0875_RLatLon0.09_PT030H.grib2 2026-05-07 20:52 837K
20260507T18Z_MSC_RDPS_WindSpeed_IsbL-0900_RLatLon0.09_PT030H.grib2 2026-05-07 20:52 853K
20260507T18Z_MSC_RDPS_WindSpeed_IsbL-0925_RLatLon0.09_PT030H.grib2 2026-05-07 20:52 866K
20260507T18Z_MSC_RDPS_WindSpeed_IsbL-0950_RLatLon0.09_PT030H.grib2 2026-05-07 20:52 868K
20260507T18Z_MSC_RDPS_WindSpeed_IsbL-0970_RLatLon0.09_PT030H.grib2 2026-05-07 20:52 862K
20260507T18Z_MSC_RDPS_WindSpeed_IsbL-0985_RLatLon0.09_PT030H.grib2 2026-05-07 20:52 858K
20260507T18Z_MSC_RDPS_WindSpeed_IsbL-1000_RLatLon0.09_PT030H.grib2 2026-05-07 20:52 851K
20260507T18Z_MSC_RDPS_WindSpeed_IsbL-1015_RLatLon0.09_PT030H.grib2 2026-05-07 20:52 842K
20260507T18Z_MSC_RDPS_WindU_AGL-10m_RLatLon0.09_PT030H.grib2 2026-05-07 20:52 433K
20260507T18Z_MSC_RDPS_WindU_AGL-120m_RLatLon0.09_PT030H.grib2 2026-05-07 20:52 417K
20260507T18Z_MSC_RDPS_WindU_AGL-40m_RLatLon0.09_PT030H.grib2 2026-05-07 20:52 538K
20260507T18Z_MSC_RDPS_WindU_AGL-80m_RLatLon0.09_PT030H.grib2 2026-05-07 20:52 419K
20260507T18Z_MSC_RDPS_WindU_IsbL-0001_RLatLon0.09_PT030H.grib2 2026-05-07 20:52 240K
20260507T18Z_MSC_RDPS_WindU_IsbL-0005_RLatLon0.09_PT030H.grib2 2026-05-07 20:52 287K
20260507T18Z_MSC_RDPS_WindU_IsbL-0010_RLatLon0.09_PT030H.grib2 2026-05-07 20:52 297K
20260507T18Z_MSC_RDPS_WindU_IsbL-0020_RLatLon0.09_PT030H.grib2 2026-05-07 20:52 315K
20260507T18Z_MSC_RDPS_WindU_IsbL-0030_RLatLon0.09_PT030H.grib2 2026-05-07 20:52 313K
20260507T18Z_MSC_RDPS_WindU_IsbL-0050_RLatLon0.09_PT030H.grib2 2026-05-07 20:52 342K
20260507T18Z_MSC_RDPS_WindU_IsbL-0100_RLatLon0.09_PT030H.grib2 2026-05-07 20:52 332K
20260507T18Z_MSC_RDPS_WindU_IsbL-0150_RLatLon0.09_PT030H.grib2 2026-05-07 20:52 394K
20260507T18Z_MSC_RDPS_WindU_IsbL-0175_RLatLon0.09_PT030H.grib2 2026-05-07 20:52 417K
20260507T18Z_MSC_RDPS_WindU_IsbL-0200_RLatLon0.09_PT030H.grib2 2026-05-07 20:52 434K
20260507T18Z_MSC_RDPS_WindU_IsbL-0225_RLatLon0.09_PT030H.grib2 2026-05-07 20:52 341K
20260507T18Z_MSC_RDPS_WindU_IsbL-0250_RLatLon0.09_PT030H.grib2 2026-05-07 20:52 341K
20260507T18Z_MSC_RDPS_WindU_IsbL-0275_RLatLon0.09_PT030H.grib2 2026-05-07 20:52 353K
20260507T18Z_MSC_RDPS_WindU_IsbL-0300_RLatLon0.09_PT030H.grib2 2026-05-07 20:52 349K
20260507T18Z_MSC_RDPS_WindU_IsbL-0350_RLatLon0.09_PT030H.grib2 2026-05-07 20:52 358K
20260507T18Z_MSC_RDPS_WindU_IsbL-0400_RLatLon0.09_PT030H.grib2 2026-05-07 20:52 360K
20260507T18Z_MSC_RDPS_WindU_IsbL-0450_RLatLon0.09_PT030H.grib2 2026-05-07 20:52 464K
20260507T18Z_MSC_RDPS_WindU_IsbL-0500_RLatLon0.09_PT030H.grib2 2026-05-07 20:52 468K
20260507T18Z_MSC_RDPS_WindU_IsbL-0550_RLatLon0.09_PT030H.grib2 2026-05-07 20:52 476K
20260507T18Z_MSC_RDPS_WindU_IsbL-0600_RLatLon0.09_PT030H.grib2 2026-05-07 20:52 470K
20260507T18Z_MSC_RDPS_WindU_IsbL-0650_RLatLon0.09_PT030H.grib2 2026-05-07 20:52 490K
20260507T18Z_MSC_RDPS_WindU_IsbL-0700_RLatLon0.09_PT030H.grib2 2026-05-07 20:52 515K
20260507T18Z_MSC_RDPS_WindU_IsbL-0750_RLatLon0.09_PT030H.grib2 2026-05-07 20:52 542K
20260507T18Z_MSC_RDPS_WindU_IsbL-0800_RLatLon0.09_PT030H.grib2 2026-05-07 20:52 582K
20260507T18Z_MSC_RDPS_WindU_IsbL-0850_RLatLon0.09_PT030H.grib2 2026-05-07 20:52 627K
20260507T18Z_MSC_RDPS_WindU_IsbL-0875_RLatLon0.09_PT030H.grib2 2026-05-07 20:52 641K
20260507T18Z_MSC_RDPS_WindU_IsbL-0900_RLatLon0.09_PT030H.grib2 2026-05-07 20:52 652K
20260507T18Z_MSC_RDPS_WindU_IsbL-0925_RLatLon0.09_PT030H.grib2 2026-05-07 20:52 661K
20260507T18Z_MSC_RDPS_WindU_IsbL-0950_RLatLon0.09_PT030H.grib2 2026-05-07 20:52 661K
20260507T18Z_MSC_RDPS_WindU_IsbL-0970_RLatLon0.09_PT030H.grib2 2026-05-07 20:52 657K
20260507T18Z_MSC_RDPS_WindU_IsbL-0985_RLatLon0.09_PT030H.grib2 2026-05-07 20:52 653K
20260507T18Z_MSC_RDPS_WindU_IsbL-1000_RLatLon0.09_PT030H.grib2 2026-05-07 20:52 787K
20260507T18Z_MSC_RDPS_WindU_IsbL-1015_RLatLon0.09_PT030H.grib2 2026-05-07 20:52 781K
20260507T18Z_MSC_RDPS_WindV_AGL-10m_RLatLon0.09_PT030H.grib2 2026-05-07 20:52 431K
20260507T18Z_MSC_RDPS_WindV_AGL-120m_RLatLon0.09_PT030H.grib2 2026-05-07 20:52 530K
20260507T18Z_MSC_RDPS_WindV_AGL-40m_RLatLon0.09_PT030H.grib2 2026-05-07 20:52 535K
20260507T18Z_MSC_RDPS_WindV_AGL-80m_RLatLon0.09_PT030H.grib2 2026-05-07 20:52 532K
20260507T18Z_MSC_RDPS_WindV_IsbL-0001_RLatLon0.09_PT030H.grib2 2026-05-07 20:52 242K
20260507T18Z_MSC_RDPS_WindV_IsbL-0005_RLatLon0.09_PT030H.grib2 2026-05-07 20:52 288K
20260507T18Z_MSC_RDPS_WindV_IsbL-0010_RLatLon0.09_PT030H.grib2 2026-05-07 20:52 298K
20260507T18Z_MSC_RDPS_WindV_IsbL-0020_RLatLon0.09_PT030H.grib2 2026-05-07 20:52 315K
20260507T18Z_MSC_RDPS_WindV_IsbL-0030_RLatLon0.09_PT030H.grib2 2026-05-07 20:52 315K
20260507T18Z_MSC_RDPS_WindV_IsbL-0050_RLatLon0.09_PT030H.grib2 2026-05-07 20:52 344K
20260507T18Z_MSC_RDPS_WindV_IsbL-0100_RLatLon0.09_PT030H.grib2 2026-05-07 20:52 425K
20260507T18Z_MSC_RDPS_WindV_IsbL-0150_RLatLon0.09_PT030H.grib2 2026-05-07 20:52 392K
20260507T18Z_MSC_RDPS_WindV_IsbL-0175_RLatLon0.09_PT030H.grib2 2026-05-07 20:52 415K
20260507T18Z_MSC_RDPS_WindV_IsbL-0200_RLatLon0.09_PT030H.grib2 2026-05-07 20:52 335K
20260507T18Z_MSC_RDPS_WindV_IsbL-0225_RLatLon0.09_PT030H.grib2 2026-05-07 20:52 366K
20260507T18Z_MSC_RDPS_WindV_IsbL-0250_RLatLon0.09_PT030H.grib2 2026-05-07 20:52 365K
20260507T18Z_MSC_RDPS_WindV_IsbL-0275_RLatLon0.09_PT030H.grib2 2026-05-07 20:52 376K
20260507T18Z_MSC_RDPS_WindV_IsbL-0300_RLatLon0.09_PT030H.grib2 2026-05-07 20:52 347K
20260507T18Z_MSC_RDPS_WindV_IsbL-0350_RLatLon0.09_PT030H.grib2 2026-05-07 20:52 356K
20260507T18Z_MSC_RDPS_WindV_IsbL-0400_RLatLon0.09_PT030H.grib2 2026-05-07 20:52 358K
20260507T18Z_MSC_RDPS_WindV_IsbL-0450_RLatLon0.09_PT030H.grib2 2026-05-07 20:52 358K
20260507T18Z_MSC_RDPS_WindV_IsbL-0500_RLatLon0.09_PT030H.grib2 2026-05-07 20:52 465K
20260507T18Z_MSC_RDPS_WindV_IsbL-0550_RLatLon0.09_PT030H.grib2 2026-05-07 20:52 470K
20260507T18Z_MSC_RDPS_WindV_IsbL-0600_RLatLon0.09_PT030H.grib2 2026-05-07 20:52 481K
20260507T18Z_MSC_RDPS_WindV_IsbL-0650_RLatLon0.09_PT030H.grib2 2026-05-07 20:52 498K
20260507T18Z_MSC_RDPS_WindV_IsbL-0700_RLatLon0.09_PT030H.grib2 2026-05-07 20:52 522K
20260507T18Z_MSC_RDPS_WindV_IsbL-0750_RLatLon0.09_PT030H.grib2 2026-05-07 20:52 535K
20260507T18Z_MSC_RDPS_WindV_IsbL-0800_RLatLon0.09_PT030H.grib2 2026-05-07 20:52 575K
20260507T18Z_MSC_RDPS_WindV_IsbL-0850_RLatLon0.09_PT030H.grib2 2026-05-07 20:52 620K
20260507T18Z_MSC_RDPS_WindV_IsbL-0875_RLatLon0.09_PT030H.grib2 2026-05-07 20:52 636K
20260507T18Z_MSC_RDPS_WindV_IsbL-0900_RLatLon0.09_PT030H.grib2 2026-05-07 20:52 650K
20260507T18Z_MSC_RDPS_WindV_IsbL-0925_RLatLon0.09_PT030H.grib2 2026-05-07 20:52 660K
20260507T18Z_MSC_RDPS_WindV_IsbL-0950_RLatLon0.09_PT030H.grib2 2026-05-07 20:52 660K
20260507T18Z_MSC_RDPS_WindV_IsbL-0970_RLatLon0.09_PT030H.grib2 2026-05-07 20:52 796K
20260507T18Z_MSC_RDPS_WindV_IsbL-0985_RLatLon0.09_PT030H.grib2 2026-05-07 20:52 790K
20260507T18Z_MSC_RDPS_WindV_IsbL-1000_RLatLon0.09_PT030H.grib2 2026-05-07 20:52 830K
20260507T18Z_MSC_RDPS_WindV_IsbL-1015_RLatLon0.09_PT030H.grib2 2026-05-07 20:52 824K